GEFSSGP_prec_meanprecacc_132.txt.gz
Total_Precipitation_Accumulation
0.01 0.05 0.11 0.28 0.83 1.08 0.84 0.50 0.41 0.33 0.33 0.28 0.29 0.29 0.34 0.48 0.69 1.00 0.47 0.14 0.04 0.02 0.03 0.11 0.19 0.17 0.13 0.13 0.14 0.17 0.17 0.18 0.16 0.16 0.16 0.16 0.14 0.11 0.09 0.10 0.12 0.14 0.17 0.19 0.26 0.26 0.22 0.26 0.31
0.03 0.06 0.14 0.43 0.84 0.84 0.60 0.44 0.36 0.26 0.28 0.33 0.46 0.44 0.36 0.44 0.44 0.37 0.25 0.16 0.06 0.03 0.03 0.04 0.12 0.15 0.14 0.13 0.14 0.17 0.15 0.14 0.13 0.13 0.13 0.14 0.13 0.11 0.10 0.11 0.13 0.15 0.16 0.19 0.25 0.23 0.22 0.23 0.29
0.05 0.08 0.18 0.48 0.58 0.43 0.34 0.23 0.23 0.28 0.36 0.45 0.51 0.51 0.52 0.51 0.40 0.35 0.27 0.16 0.13 0.07 0.04 0.06 0.10 0.12 0.14 0.15 0.15 0.15 0.15 0.14 0.13 0.12 0.13 0.12 0.12 0.12 0.11 0.13 0.14 0.17 0.21 0.22 0.19 0.20 0.23 0.24 0.28
0.05 0.12 0.25 0.36 0.25 0.13 0.12 0.14 0.22 0.33 0.53 0.76 0.76 0.68 0.61 0.42 0.33 0.29 0.32 0.24 0.19 0.11 0.07 0.09 0.13 0.12 0.12 0.13 0.14 0.15 0.14 0.13 0.14 0.13 0.13 0.13 0.13 0.15 0.14 0.13 0.15 0.19 0.24 0.24 0.24 0.25 0.24 0.24 0.25
0.04 0.17 0.32 0.29 0.13 0.09 0.10 0.14 0.26 0.39 0.58 0.77 0.82 0.83 0.78 0.50 0.35 0.34 0.31 0.30 0.24 0.16 0.10 0.10 0.17 0.15 0.14 0.15 0.17 0.17 0.15 0.14 0.14 0.14 0.16 0.17 0.17 0.17 0.16 0.16 0.17 0.19 0.22 0.23 0.25 0.27 0.25 0.26 0.27
0.04 0.15 0.21 0.18 0.10 0.07 0.11 0.16 0.26 0.39 0.57 0.76 1.01 1.07 0.91 0.65 0.59 0.52 0.41 0.49 0.37 0.26 0.17 0.18 0.25 0.25 0.21 0.20 0.22 0.22 0.18 0.16 0.17 0.18 0.20 0.20 0.19 0.20 0.20 0.21 0.21 0.21 0.24 0.25 0.24 0.25 0.25 0.26 0.31
0.01 0.07 0.11 0.11 0.08 0.07 0.10 0.15 0.25 0.41 0.57 0.85 1.13 1.23 0.98 0.75 0.68 0.64 0.61 0.67 0.68 0.52 0.39 0.32 0.30 0.29 0.26 0.28 0.29 0.28 0.24 0.22 0.22 0.23 0.22 0.21 0.20 0.22 0.23 0.27 0.28 0.28 0.29 0.28 0.28 0.28 0.30 0.34 0.38
0.01 0.03 0.06 0.06 0.05 0.07 0.12 0.16 0.29 0.49 0.68 0.92 1.11 1.24 1.24 0.84 0.72 0.82 0.99 1.12 1.22 1.07 0.83 0.61 0.40 0.41 0.34 0.31 0.33 0.33 0.29 0.27 0.27 0.26 0.25 0.27 0.31 0.37 0.40 0.40 0.39 0.40 0.43 0.43 0.45 0.45 0.47 0.52 0.58
0.01 0.03 0.05 0.03 0.04 0.11 0.14 0.18 0.25 0.35 0.56 0.81 1.01 1.07 0.95 0.85 1.00 1.21 1.52 1.52 1.35 1.35 1.16 1.04 0.82 0.56 0.53 0.48 0.42 0.49 0.47 0.47 0.49 0.53 0.51 0.53 0.64 0.74 0.82 0.70 0.69 0.71 0.76 0.78 0.84 0.88 0.89 0.87 0.78
0.00 0.02 0.03 0.01 0.02 0.05 0.11 0.16 0.25 0.35 0.75 1.36 1.38 1.03 0.80 0.96 1.21 1.37 1.63 1.86 1.46 1.40 1.22 1.22 1.15 0.84 0.72 0.66 0.82 1.01 0.93 0.97 0.95 1.08 0.98 1.13 1.20 1.05 0.78 0.86 1.00 1.10 1.32 1.40 1.48 1.55 1.52 1.37 1.17
0.00 0.00 0.01 0.01 0.01 0.01 0.04 0.11 0.20 0.42 0.87 1.58 1.76 1.31 1.10 1.20 1.53 1.54 1.72 1.93 1.84 1.65 1.52 1.21 1.32 1.13 1.04 1.10 1.17 1.28 1.35 1.35 1.33 1.37 1.39 1.56 1.49 1.23 1.09 1.26 1.54 1.70 1.86 1.99 2.16 2.17 1.85 1.88 1.96
0.00 0.00 0.00 0.01 0.01 0.01 0.09 0.15 0.25 0.33 0.75 1.09 1.08 0.98 1.15 1.35 1.64 1.82 1.84 2.05 2.08 1.94 1.82 1.66 1.65 1.60 1.51 1.46 1.36 1.28 1.17 1.18 1.28 1.40 1.47 1.63 1.66 1.66 1.62 1.68 1.77 1.93 2.20 2.48 2.51 2.54 2.45 2.58 2.50
0.00 0.00 0.00 0.02 0.03 0.04 0.10 0.13 0.24 0.39 0.52 0.64 0.61 0.80 1.22 1.51 1.86 2.15 2.46 2.66 2.69 2.62 2.46 2.40 2.43 2.18 1.93 1.75 1.42 1.19 1.08 0.99 1.05 1.16 1.24 1.31 1.56 1.73 1.74 1.58 1.59 1.65 1.90 2.26 2.61 2.66 2.87 2.96 2.74
0.00 0.00 0.01 0.03 0.04 0.05 0.07 0.10 0.26 0.47 0.49 0.61 0.76 0.99 1.36 1.80 2.18 2.41 3.11 3.46 3.66 3.59 3.37 3.16 3.16 2.63 2.28 1.97 1.56 1.33 1.12 1.09 1.02 0.95 1.02 1.20 1.37 1.55 1.50 1.49 1.57 1.66 1.66 1.82 2.22 2.45 2.69 2.66 2.44
0.00 0.02 0.05 0.06 0.05 0.06 0.06 0.18 0.40 0.53 0.72 0.77 0.94 1.17 1.50 2.06 2.50 2.94 3.45 4.14 4.55 4.69 4.28 3.64 3.36 2.98 2.63 2.32 1.84 1.46 1.26 1.06 1.02 0.93 0.93 1.01 1.11 1.26 1.27 1.30 1.29 1.36 1.37 1.40 1.55 1.78 1.97 1.96 1.90
0.01 0.08 0.18 0.11 0.07 0.08 0.11 0.42 0.65 0.56 0.85 1.19 1.14 1.41 1.81 2.31 2.73 3.36 4.03 4.82 5.35 5.50 4.89 4.09 3.38 3.38 3.15 2.76 2.12 1.62 1.31 1.11 0.94 0.85 0.76 0.75 0.79 0.81 0.83 0.86 0.86 0.85 0.83 0.90 1.06 1.18 1.32 1.50 1.65
0.03 0.07 0.15 0.18 0.12 0.10 0.19 0.59 0.76 0.57 0.72 1.03 1.27 1.51 1.93 2.29 2.58 3.17 3.79 4.59 5.21 5.72 5.48 4.77 4.47 4.22 3.55 2.74 2.06 1.60 1.31 1.14 0.96 0.83 0.69 0.66 0.62 0.61 0.65 0.68 0.70 0.57 0.54 0.59 0.62 0.81 0.94 1.11 1.21
0.02 0.04 0.10 0.21 0.17 0.17 0.26 0.46 0.71 0.75 0.92 1.14 1.29 1.44 1.72 1.87 2.10 2.59 3.14 3.62 4.21 4.70 4.57 4.40 4.40 3.89 3.24 2.55 2.02 1.63 1.36 1.13 0.96 0.80 0.71 0.64 0.61 0.57 0.62 0.56 0.53 0.44 0.44 0.51 0.62 0.75 0.77 0.78 0.84
0.02 0.04 0.08 0.15 0.16 0.23 0.36 0.48 0.68 0.84 1.06 1.24 1.28 1.24 1.31 1.46 1.73 1.99 2.37 2.77 2.99 3.15 3.22 3.44 3.56 3.21 2.67 2.19 1.65 1.37 1.26 1.08 0.91 0.76 0.63 0.60 0.55 0.58 0.61 0.51 0.55 0.46 0.43 0.44 0.47 0.56 0.60 0.58 0.57
0.03 0.06 0.11 0.14 0.14 0.19 0.34 0.63 0.79 0.86 0.89 0.97 1.09 1.05 1.07 1.21 1.30 1.41 1.61 1.93 2.03 2.23 2.52 2.81 2.95 2.71 2.17 1.90 1.59 1.41 1.29 1.14 0.99 0.82 0.66 0.52 0.48 0.49 0.48 0.55 0.45 0.42 0.43 0.42 0.43 0.50 0.51 0.47 0.49
0.04 0.05 0.06 0.10 0.11 0.19 0.35 0.86 0.96 0.84 0.77 0.68 0.79 0.84 0.82 0.87 0.94 0.94 1.01 1.21 1.51 1.97 2.09 2.08 2.25 2.30 2.02 1.84 1.68 1.48 1.37 1.19 1.06 0.90 0.69 0.50 0.46 0.47 0.45 0.43 0.43 0.48 0.39 0.45 0.53 0.51 0.49 0.46 0.43
0.04 0.03 0.02 0.02 0.07 0.30 0.42 0.87 0.97 0.84 0.85 0.67 0.62 0.62 0.53 0.48 0.60 0.74 0.77 0.86 1.06 1.37 1.62 1.80 1.98 2.04 1.86 1.71 1.47 1.22 0.99 0.83 0.70 0.65 0.63 0.57 0.50 0.45 0.41 0.35 0.39 0.45 0.42 0.55 0.43 0.45 0.49 0.48 0.40
0.01 0.01 0.01 0.03 0.10 0.27 0.40 0.73 0.94 0.77 0.91 0.67 0.41 0.30 0.25 0.24 0.32 0.46 0.59 0.71 0.74 0.93 1.28 1.63 1.91 2.05 1.81 1.51 1.30 1.19 1.00 0.88 0.78 0.71 0.76 0.65 0.58 0.51 0.44 0.41 0.42 0.40 0.39 0.47 0.47 0.54 0.49 0.49 0.46
0.01 0.02 0.08 0.17 0.29 0.61 0.61 0.59 0.89 0.67 0.47 0.32 0.22 0.17 0.18 0.19 0.22 0.31 0.39 0.49 0.61 0.74 0.96 1.18 1.44 1.66 1.60 1.41 1.26 1.19 1.12 1.03 0.90 0.73 0.66 0.61 0.59 0.57 0.54 0.50 0.51 0.49 0.42 0.40 0.40 0.45 0.49 0.55 0.59
0.02 0.03 0.16 0.37 0.63 0.83 0.49 0.62 0.97 0.56 0.36 0.21 0.17 0.16 0.17 0.14 0.18 0.27 0.35 0.33 0.44 0.53 0.61 0.74 0.99 1.18 1.23 1.21 1.19 1.12 1.16 1.14 1.01 0.84 0.73 0.66 0.57 0.54 0.53 0.52 0.54 0.54 0.54 0.48 0.46 0.41 0.44 0.52 0.56
0.02 0.02 0.06 0.12 0.25 0.41 0.48 1.08 0.91 0.38 0.23 0.19 0.16 0.16 0.15 0.13 0.14 0.19 0.28 0.30 0.30 0.36 0.47 0.59 0.75 0.87 0.93 0.95 1.02 1.02 0.97 0.90 0.92 0.95 0.83 0.72 0.64 0.58 0.53 0.53 0.50 0.51 0.54 0.56 0.57 0.46 0.41 0.45 0.47
0.02 0.02 0.03 0.04 0.06 0.25 0.58 0.76 0.48 0.21 0.18 0.21 0.17 0.14 0.13 0.16 0.19 0.20 0.27 0.27 0.22 0.28 0.36 0.40 0.54 0.67 0.75 0.82 0.92 0.91 0.88 0.81 0.80 0.79 0.72 0.66 0.70 0.68 0.63 0.57 0.55 0.56 0.55 0.55 0.57 0.55 0.52 0.50 0.44
0.03 0.02 0.02 0.02 0.05 0.18 0.43 0.67 0.67 0.38 0.28 0.24 0.20 0.16 0.13 0.18 0.25 0.25 0.24 0.29 0.25 0.26 0.32 0.35 0.43 0.54 0.64 0.73 0.77 0.77 0.86 0.83 0.86 0.80 0.70 0.61 0.59 0.57 0.62 0.62 0.57 0.57 0.59 0.62 0.63 0.66 0.71 0.72 0.65
0.04 0.03 0.03 0.03 0.04 0.09 0.28 0.43 0.44 0.34 0.30 0.24 0.19 0.17 0.16 0.16 0.21 0.23 0.19 0.21 0.21 0.22 0.25 0.27 0.37 0.47 0.56 0.66 0.71 0.76 0.79 0.81 0.84 0.86 0.83 0.76 0.70 0.64 0.63 0.63 0.61 0.59 0.61 0.61 0.63 0.66 0.75 0.86 0.93
0.05 0.06 0.06 0.05 0.05 0.06 0.12 0.20 0.21 0.23 0.28 0.25 0.25 0.24 0.20 0.16 0.13 0.15 0.16 0.18 0.16 0.20 0.22 0.22 0.27 0.34 0.41 0.58 0.71 0.73 0.80 0.85 0.82 0.80 0.91 0.91 0.88 0.84 0.80 0.75 0.74 0.70 0.63 0.64 0.64 0.62 0.65 0.77 0.94

GEFSSGP_prec_meanprecacc_138.txt.gz
Total_Precipitation_Accumulation
0.01 0.05 0.11 0.28 0.83 1.08 0.84 0.50 0.41 0.33 0.33 0.28 0.29 0.29 0.34 0.48 0.70 1.02 0.48 0.14 0.05 0.02 0.04 0.13 0.22 0.19 0.15 0.14 0.15 0.18 0.18 0.18 0.17 0.17 0.17 0.17 0.16 0.13 0.11 0.14 0.16 0.20 0.22 0.23 0.30 0.30 0.26 0.30 0.34
0.03 0.06 0.14 0.43 0.84 0.84 0.60 0.44 0.36 0.26 0.28 0.33 0.46 0.44 0.36 0.45 0.44 0.37 0.26 0.17 0.07 0.04 0.04 0.05 0.13 0.16 0.15 0.14 0.15 0.17 0.16 0.15 0.14 0.14 0.14 0.14 0.14 0.12 0.11 0.13 0.17 0.21 0.21 0.23 0.31 0.28 0.25 0.26 0.32
0.05 0.08 0.18 0.48 0.58 0.43 0.34 0.23 0.23 0.28 0.36 0.45 0.51 0.52 0.53 0.51 0.40 0.35 0.27 0.17 0.13 0.08 0.06 0.07 0.11 0.13 0.15 0.16 0.15 0.16 0.15 0.14 0.13 0.13 0.13 0.13 0.13 0.13 0.13 0.15 0.18 0.23 0.27 0.27 0.26 0.25 0.27 0.28 0.31
0.05 0.12 0.25 0.36 0.25 0.13 0.12 0.14 0.22 0.34 0.53 0.76 0.76 0.68 0.61 0.42 0.33 0.30 0.32 0.24 0.19 0.12 0.07 0.10 0.14 0.12 0.13 0.14 0.15 0.16 0.14 0.13 0.14 0.14 0.14 0.14 0.14 0.16 0.16 0.15 0.18 0.25 0.31 0.29 0.29 0.30 0.28 0.28 0.29
0.04 0.17 0.32 0.29 0.13 0.09 0.10 0.14 0.26 0.39 0.58 0.77 0.82 0.83 0.78 0.50 0.35 0.34 0.31 0.30 0.24 0.17 0.10 0.11 0.18 0.17 0.16 0.16 0.18 0.17 0.15 0.14 0.14 0.14 0.16 0.18 0.18 0.19 0.19 0.19 0.22 0.25 0.28 0.29 0.30 0.31 0.30 0.30 0.30
0.04 0.15 0.21 0.18 0.10 0.07 0.11 0.16 0.26 0.39 0.58 0.77 1.01 1.07 0.92 0.66 0.60 0.53 0.41 0.49 0.37 0.27 0.17 0.19 0.26 0.27 0.23 0.22 0.23 0.23 0.19 0.17 0.18 0.18 0.20 0.21 0.20 0.22 0.23 0.25 0.27 0.27 0.29 0.31 0.29 0.31 0.30 0.30 0.36
0.01 0.07 0.11 0.11 0.08 0.07 0.10 0.15 0.26 0.42 0.58 0.85 1.13 1.23 0.99 0.77 0.71 0.67 0.61 0.68 0.69 0.52 0.39 0.34 0.32 0.31 0.28 0.31 0.32 0.29 0.26 0.23 0.24 0.24 0.23 0.23 0.22 0.24 0.26 0.31 0.32 0.33 0.33 0.32 0.32 0.32 0.34 0.38 0.43
0.01 0.03 0.06 0.06 0.05 0.07 0.12 0.16 0.29 0.50 0.69 0.92 1.12 1.25 1.26 0.90 0.77 0.86 1.02 1.16 1.25 1.10 0.86 0.63 0.43 0.44 0.37 0.35 0.36 0.35 0.31 0.29 0.29 0.28 0.26 0.28 0.33 0.38 0.43 0.45 0.42 0.43 0.46 0.47 0.50 0.49 0.51 0.58 0.63
0.01 0.03 0.05 0.03 0.04 0.11 0.14 0.18 0.25 0.36 0.57 0.82 1.01 1.07 0.95 0.88 1.03 1.23 1.56 1.58 1.40 1.41 1.23 1.10 0.86 0.62 0.59 0.51 0.44 0.52 0.50 0.49 0.51 0.56 0.53 0.55 0.69 0.77 0.84 0.74 0.71 0.74 0.81 0.85 0.92 0.94 0.95 0.94 0.84
0.00 0.02 0.03 0.01 0.02 0.05 0.11 0.16 0.25 0.35 0.76 1.37 1.38 1.03 0.80 0.97 1.22 1.39 1.68 1.91 1.50 1.45 1.28 1.28 1.21 0.90 0.77 0.69 0.86 1.05 0.97 1.00 0.99 1.13 1.02 1.16 1.24 1.08 0.80 0.89 1.03 1.14 1.38 1.47 1.55 1.62 1.56 1.41 1.23
0.00 0.00 0.01 0.01 0.01 0.01 0.04 0.11 0.20 0.42 0.87 1.59 1.77 1.31 1.11 1.21 1.55 1.56 1.78 1.96 1.87 1.69 1.56 1.27 1.37 1.18 1.10 1.15 1.21 1.32 1.39 1.39 1.36 1.41 1.42 1.59 1.50 1.25 1.11 1.31 1.60 1.76 1.90 2.04 2.20 2.21 1.88 1.91 2.03
0.00 0.00 0.00 0.01 0.01 0.01 0.09 0.15 0.25 0.33 0.75 1.10 1.09 0.98 1.15 1.36 1.66 1.85 1.88 2.08 2.12 1.98 1.87 1.70 1.69 1.64 1.58 1.53 1.41 1.30 1.19 1.21 1.31 1.44 1.50 1.65 1.68 1.69 1.64 1.72 1.81 1.98 2.26 2.55 2.56 2.61 2.50 2.62 2.54
0.00 0.00 0.00 0.02 0.03 0.04 0.10 0.13 0.24 0.39 0.52 0.64 0.61 0.80 1.23 1.52 1.88 2.19 2.49 2.68 2.72 2.65 2.49 2.45 2.49 2.23 1.99 1.82 1.48 1.22 1.10 1.01 1.08 1.20 1.27 1.33 1.59 1.75 1.76 1.61 1.62 1.67 1.91 2.29 2.65 2.70 2.92 3.02 2.78
0.00 0.00 0.01 0.03 0.04 0.05 0.07 0.10 0.26 0.47 0.49 0.61 0.76 0.99 1.37 1.81 2.19 2.42 3.14 3.49 3.69 3.62 3.41 3.20 3.22 2.69 2.34 2.03 1.61 1.36 1.15 1.12 1.04 0.97 1.04 1.22 1.40 1.57 1.53 1.51 1.61 1.69 1.69 1.84 2.25 2.49 2.75 2.73 2.50
0.00 0.03 0.06 0.07 0.05 0.06 0.06 0.18 0.40 0.53 0.72 0.77 0.94 1.17 1.50 2.06 2.51 2.95 3.48 4.19 4.59 4.73 4.31 3.67 3.40 3.04 2.69 2.37 1.89 1.49 1.28 1.08 1.04 0.96 0.95 1.04 1.14 1.29 1.30 1.35 1.34 1.40 1.42 1.44 1.60 1.83 2.02 2.03 1.96
0.01 0.08 0.18 0.11 0.07 0.08 0.11 0.42 0.65 0.56 0.85 1.19 1.14 1.41 1.81 2.32 2.74 3.37 4.07 4.89 5.39 5.54 4.92 4.12 3.43 3.42 3.19 2.81 2.17 1.66 1.34 1.13 0.97 0.89 0.80 0.79 0.82 0.83 0.87 0.90 0.90 0.90 0.87 0.95 1.13 1.24 1.38 1.58 1.73
0.03 0.07 0.15 0.18 0.12 0.10 0.19 0.59 0.76 0.57 0.72 1.03 1.27 1.51 1.93 2.29 2.58 3.18 3.83 4.65 5.25 5.76 5.51 4.79 4.51 4.27 3.59 2.78 2.12 1.66 1.34 1.17 0.99 0.89 0.76 0.72 0.66 0.64 0.69 0.73 0.76 0.62 0.60 0.65 0.66 0.86 1.02 1.21 1.31
0.02 0.04 0.10 0.21 0.17 0.18 0.26 0.46 0.72 0.75 0.92 1.14 1.29 1.44 1.72 1.88 2.11 2.61 3.17 3.65 4.24 4.73 4.60 4.45 4.47 3.98 3.33 2.61 2.08 1.71 1.41 1.17 1.00 0.86 0.78 0.73 0.67 0.62 0.67 0.61 0.57 0.48 0.53 0.60 0.70 0.85 0.85 0.87 0.95
0.02 0.04 0.08 0.15 0.16 0.23 0.36 0.48 0.68 0.84 1.06 1.24 1.28 1.24 1.31 1.46 1.74 2.01 2.40 2.81 3.01 3.17 3.26 3.51 3.66 3.34 2.78 2.28 1.74 1.44 1.31 1.13 0.97 0.82 0.69 0.68 0.61 0.66 0.68 0.57 0.60 0.52 0.51 0.54 0.56 0.65 0.68 0.66 0.66
0.03 0.06 0.11 0.14 0.14 0.19 0.34 0.63 0.79 0.86 0.89 0.98 1.09 1.05 1.07 1.21 1.31 1.43 1.65 1.98 2.06 2.26 2.57 2.88 3.04 2.85 2.30 2.02 1.72 1.51 1.37 1.21 1.07 0.90 0.74 0.60 0.56 0.59 0.56 0.62 0.50 0.50 0.53 0.54 0.54 0.61 0.61 0.55 0.56
0.04 0.05 0.06 0.10 0.11 0.19 0.35 0.86 0.96 0.84 0.77 0.68 0.79 0.84 0.82 0.87 0.96 0.98 1.06 1.24 1.54 2.01 2.14 2.14 2.32 2.41 2.15 1.99 1.83 1.63 1.49 1.29 1.14 0.98 0.79 0.58 0.54 0.56 0.54 0.52 0.49 0.56 0.46 0.55 0.63 0.63 0.61 0.58 0.51
0.04 0.03 0.02 0.02 0.07 0.30 0.42 0.87 0.97 0.84 0.85 0.67 0.62 0.62 0.53 0.48 0.62 0.77 0.81 0.88 1.08 1.39 1.65 1.85 2.03 2.12 1.98 1.83 1.61 1.39 1.17 0.97 0.79 0.75 0.74 0.68 0.61 0.55 0.51 0.44 0.49 0.55 0.51 0.64 0.51 0.54 0.60 0.59 0.50
0.01 0.01 0.01 0.03 0.10 0.27 0.40 0.73 0.94 0.77 0.91 0.67 0.41 0.30 0.25 0.25 0.33 0.48 0.61 0.73 0.75 0.95 1.31 1.67 1.96 2.11 1.91 1.61 1.44 1.35 1.19 1.04 0.88 0.80 0.89 0.78 0.71 0.61 0.54 0.50 0.51 0.48 0.46 0.55 0.56 0.65 0.59 0.58 0.55
0.01 0.02 0.08 0.17 0.29 0.61 0.61 0.59 0.89 0.67 0.47 0.32 0.22 0.17 0.18 0.19 0.23 0.33 0.40 0.49 0.62 0.75 0.97 1.20 1.47 1.69 1.66 1.49 1.37 1.30 1.25 1.16 1.02 0.82 0.76 0.72 0.71 0.68 0.63 0.60 0.59 0.56 0.49 0.49 0.51 0.56 0.61 0.65 0.69
0.02 0.03 0.16 0.37 0.63 0.83 0.49 0.62 0.97 0.56 0.36 0.21 0.17 0.16 0.17 0.14 0.18 0.27 0.35 0.33 0.44 0.54 0.62 0.75 1.02 1.21 1.29 1.28 1.26 1.19 1.24 1.23 1.12 0.96 0.81 0.73 0.65 0.61 0.62 0.60 0.62 0.61 0.61 0.58 0.56 0.53 0.53 0.60 0.66
0.02 0.02 0.06 0.12 0.25 0.41 0.48 1.08 0.91 0.38 0.23 0.19 0.16 0.16 0.15 0.13 0.14 0.19 0.28 0.30 0.30 0.37 0.48 0.60 0.78 0.91 0.97 0.99 1.07 1.06 1.04 0.98 1.03 1.06 0.92 0.78 0.70 0.64 0.60 0.60 0.57 0.57 0.60 0.61 0.65 0.54 0.48 0.53 0.56
0.02 0.02 0.03 0.04 0.06 0.25 0.58 0.76 0.48 0.21 0.18 0.21 0.17 0.14 0.13 0.16 0.19 0.20 0.27 0.27 0.22 0.28 0.36 0.41 0.56 0.69 0.78 0.86 0.95 0.94 0.93 0.87 0.88 0.88 0.80 0.73 0.77 0.75 0.69 0.63 0.61 0.62 0.61 0.61 0.65 0.62 0.59 0.58 0.51
0.03 0.02 0.02 0.02 0.05 0.18 0.43 0.67 0.67 0.38 0.28 0.24 0.20 0.16 0.13 0.18 0.25 0.25 0.25 0.30 0.26 0.26 0.32 0.36 0.44 0.56 0.66 0.75 0.80 0.81 0.90 0.88 0.94 0.87 0.77 0.69 0.67 0.66 0.68 0.67 0.61 0.62 0.64 0.69 0.72 0.73 0.79 0.80 0.71
0.04 0.03 0.03 0.03 0.04 0.09 0.28 0.43 0.44 0.34 0.30 0.24 0.19 0.17 0.16 0.16 0.21 0.23 0.20 0.22 0.22 0.23 0.25 0.27 0.38 0.48 0.57 0.68 0.74 0.80 0.82 0.84 0.89 0.91 0.89 0.82 0.76 0.72 0.69 0.68 0.65 0.64 0.66 0.68 0.70 0.72 0.83 0.95 0.99
0.05 0.06 0.06 0.05 0.05 0.06 0.12 0.20 0.21 0.23 0.28 0.25 0.25 0.24 0.20 0.16 0.13 0.15 0.17 0.18 0.17 0.21 0.22 0.22 0.27 0.35 0.42 0.60 0.73 0.76 0.83 0.88 0.87 0.87 0.99 0.98 0.94 0.90 0.85 0.80 0.80 0.75 0.68 0.69 0.69 0.67 0.70 0.83 1.01

GEFSSGP_prec_meanprecacc_144.txt.gz
Total_Precipitation_Accumulation
0.01 0.05 0.11 0.28 0.86 1.10 0.84 0.50 0.41 0.33 0.33 0.28 0.29 0.29 0.35 0.51 0.74 1.08 0.50 0.15 0.05 0.03 0.04 0.13 0.24 0.22 0.17 0.16 0.17 0.20 0.20 0.21 0.20 0.20 0.21 0.21 0.19 0.15 0.15 0.18 0.21 0.27 0.29 0.29 0.36 0.37 0.32 0.35 0.41
0.03 0.06 0.14 0.44 0.87 0.85 0.60 0.44 0.36 0.26 0.28 0.33 0.46 0.45 0.37 0.45 0.45 0.38 0.27 0.18 0.07 0.04 0.04 0.06 0.15 0.18 0.17 0.16 0.16 0.19 0.18 0.17 0.16 0.16 0.18 0.19 0.19 0.16 0.16 0.19 0.23 0.27 0.28 0.29 0.35 0.33 0.31 0.31 0.37
0.05 0.08 0.18 0.49 0.58 0.43 0.34 0.23 0.23 0.28 0.36 0.45 0.51 0.52 0.54 0.52 0.41 0.35 0.28 0.17 0.13 0.09 0.06 0.09 0.12 0.14 0.16 0.17 0.17 0.19 0.19 0.17 0.15 0.15 0.17 0.18 0.17 0.18 0.18 0.21 0.25 0.30 0.32 0.31 0.30 0.29 0.33 0.33 0.36
0.05 0.12 0.25 0.37 0.25 0.13 0.12 0.14 0.22 0.34 0.53 0.76 0.77 0.70 0.63 0.43 0.34 0.30 0.32 0.24 0.20 0.12 0.08 0.11 0.15 0.13 0.14 0.16 0.17 0.18 0.17 0.16 0.16 0.16 0.17 0.18 0.18 0.19 0.20 0.20 0.26 0.33 0.38 0.36 0.34 0.34 0.34 0.34 0.36
0.04 0.17 0.33 0.29 0.13 0.09 0.10 0.15 0.26 0.40 0.58 0.77 0.82 0.85 0.81 0.53 0.36 0.34 0.31 0.30 0.24 0.17 0.11 0.11 0.19 0.18 0.17 0.17 0.20 0.20 0.17 0.16 0.16 0.16 0.19 0.21 0.21 0.22 0.23 0.24 0.29 0.33 0.36 0.35 0.35 0.36 0.34 0.34 0.35
0.04 0.16 0.21 0.18 0.10 0.07 0.11 0.17 0.27 0.40 0.59 0.77 1.02 1.09 0.95 0.69 0.61 0.54 0.41 0.49 0.37 0.27 0.18 0.19 0.26 0.27 0.24 0.24 0.26 0.25 0.21 0.19 0.20 0.20 0.23 0.24 0.23 0.24 0.26 0.30 0.33 0.34 0.36 0.35 0.34 0.34 0.32 0.32 0.39
0.02 0.07 0.11 0.11 0.08 0.07 0.10 0.15 0.26 0.42 0.59 0.85 1.14 1.25 1.02 0.81 0.73 0.67 0.61 0.68 0.69 0.53 0.40 0.35 0.33 0.32 0.30 0.33 0.34 0.31 0.27 0.25 0.26 0.27 0.25 0.24 0.24 0.26 0.29 0.37 0.37 0.37 0.39 0.38 0.37 0.35 0.36 0.40 0.45
0.01 0.03 0.07 0.06 0.05 0.07 0.12 0.16 0.30 0.51 0.69 0.92 1.12 1.25 1.29 0.94 0.78 0.87 1.04 1.19 1.28 1.13 0.89 0.66 0.46 0.46 0.38 0.35 0.37 0.37 0.31 0.30 0.30 0.30 0.28 0.30 0.34 0.39 0.46 0.49 0.45 0.47 0.50 0.53 0.54 0.52 0.52 0.59 0.65
0.01 0.03 0.05 0.03 0.04 0.11 0.14 0.18 0.26 0.37 0.57 0.82 1.01 1.07 0.96 0.89 1.04 1.25 1.59 1.63 1.45 1.47 1.28 1.15 0.91 0.66 0.62 0.54 0.46 0.54 0.51 0.50 0.53 0.60 0.56 0.62 0.81 0.84 0.92 0.79 0.74 0.77 0.84 0.89 0.95 0.96 0.97 0.95 0.85
0.00 0.02 0.03 0.01 0.02 0.05 0.12 0.17 0.26 0.39 0.80 1.39 1.39 1.03 0.80 0.98 1.23 1.42 1.72 1.94 1.53 1.49 1.32 1.32 1.25 0.94 0.81 0.74 0.89 1.10 1.01 1.03 1.05 1.22 1.09 1.29 1.39 1.22 0.88 0.93 1.05 1.16 1.41 1.50 1.58 1.64 1.58 1.44 1.25
0.00 0.00 0.01 0.01 0.01 0.01 0.04 0.11 0.21 0.44 0.89 1.60 1.77 1.32 1.11 1.22 1.57 1.58 1.81 1.99 1.90 1.72 1.59 1.32 1.41 1.22 1.14 1.21 1.27 1.38 1.46 1.47 1.44 1.50 1.51 1.70 1.59 1.34 1.19 1.37 1.64 1.79 1.95 2.11 2.24 2.25 1.97 1.97 2.08
0.00 0.00 0.00 0.01 0.01 0.01 0.09 0.15 0.25 0.33 0.75 1.10 1.09 0.99 1.15 1.37 1.68 1.87 1.91 2.12 2.16 2.00 1.90 1.75 1.73 1.69 1.63 1.60 1.50 1.37 1.24 1.26 1.39 1.51 1.56 1.74 1.78 1.80 1.76 1.85 1.91 2.06 2.36 2.68 2.67 2.72 2.62 2.70 2.56
0.00 0.00 0.00 0.02 0.03 0.04 0.10 0.13 0.24 0.39 0.52 0.64 0.62 0.80 1.23 1.52 1.90 2.20 2.52 2.71 2.76 2.69 2.53 2.50 2.55 2.30 2.06 1.90 1.56 1.27 1.14 1.05 1.14 1.25 1.34 1.41 1.65 1.84 1.87 1.72 1.74 1.74 1.97 2.35 2.76 2.80 3.03 3.10 2.82
0.00 0.00 0.01 0.03 0.04 0.05 0.08 0.12 0.27 0.47 0.49 0.61 0.76 0.99 1.37 1.82 2.20 2.44 3.17 3.52 3.74 3.67 3.47 3.26 3.27 2.74 2.39 2.09 1.67 1.41 1.18 1.15 1.08 1.02 1.07 1.26 1.44 1.63 1.61 1.59 1.70 1.77 1.75 1.90 2.31 2.55 2.83 2.84 2.56
0.01 0.03 0.06 0.07 0.05 0.06 0.09 0.23 0.41 0.54 0.73 0.77 0.95 1.17 1.50 2.07 2.52 2.97 3.50 4.22 4.63 4.79 4.38 3.74 3.44 3.08 2.75 2.44 1.95 1.53 1.31 1.10 1.07 1.00 0.99 1.06 1.16 1.33 1.35 1.42 1.40 1.45 1.46 1.49 1.65 1.89 2.12 2.11 2.03
0.02 0.09 0.18 0.11 0.07 0.08 0.13 0.49 0.66 0.56 0.85 1.20 1.14 1.42 1.81 2.32 2.75 3.38 4.10 4.92 5.43 5.59 4.97 4.18 3.48 3.46 3.24 2.86 2.23 1.70 1.37 1.16 1.01 0.93 0.84 0.82 0.86 0.86 0.91 0.96 0.95 0.93 0.89 0.97 1.17 1.29 1.46 1.67 1.83
0.03 0.07 0.15 0.18 0.12 0.10 0.19 0.60 0.77 0.57 0.72 1.03 1.27 1.51 1.94 2.30 2.60 3.20 3.86 4.68 5.27 5.78 5.55 4.85 4.56 4.31 3.63 2.83 2.17 1.71 1.40 1.21 1.04 0.95 0.82 0.77 0.70 0.66 0.72 0.78 0.83 0.65 0.62 0.67 0.69 0.91 1.07 1.29 1.41
0.02 0.04 0.10 0.21 0.17 0.18 0.26 0.46 0.72 0.75 0.92 1.14 1.29 1.44 1.72 1.88 2.12 2.63 3.18 3.67 4.26 4.75 4.64 4.51 4.53 4.02 3.37 2.67 2.15 1.77 1.47 1.21 1.03 0.92 0.86 0.78 0.72 0.64 0.71 0.65 0.61 0.51 0.56 0.65 0.74 0.91 0.91 0.94 1.04
0.02 0.04 0.08 0.15 0.16 0.23 0.36 0.48 0.68 0.84 1.06 1.24 1.28 1.24 1.31 1.47 1.75 2.02 2.41 2.83 3.03 3.19 3.29 3.55 3.72 3.39 2.83 2.34 1.80 1.52 1.38 1.17 1.00 0.86 0.75 0.73 0.66 0.70 0.73 0.63 0.67 0.58 0.57 0.58 0.59 0.71 0.74 0.72 0.72
0.03 0.06 0.11 0.14 0.14 0.19 0.34 0.63 0.80 0.87 0.89 0.98 1.09 1.05 1.07 1.22 1.32 1.44 1.66 1.99 2.07 2.28 2.60 2.93 3.10 2.92 2.36 2.08 1.79 1.59 1.45 1.26 1.12 0.96 0.82 0.68 0.63 0.63 0.60 0.69 0.57 0.57 0.62 0.61 0.61 0.70 0.71 0.63 0.64
0.04 0.05 0.06 0.10 0.11 0.19 0.35 0.86 0.98 0.86 0.78 0.68 0.79 0.84 0.82 0.89 0.98 0.99 1.07 1.25 1.55 2.02 2.16 2.17 2.37 2.48 2.22 2.06 1.93 1.74 1.60 1.35 1.21 1.06 0.88 0.64 0.58 0.60 0.59 0.56 0.55 0.65 0.52 0.64 0.74 0.72 0.71 0.69 0.62
0.04 0.03 0.02 0.02 0.07 0.30 0.42 0.87 0.98 0.85 0.86 0.67 0.62 0.62 0.53 0.49 0.64 0.78 0.81 0.88 1.08 1.40 1.66 1.88 2.07 2.19 2.07 1.92 1.70 1.50 1.27 1.07 0.89 0.85 0.86 0.78 0.68 0.61 0.58 0.51 0.57 0.66 0.57 0.75 0.58 0.61 0.69 0.70 0.61
0.01 0.01 0.01 0.03 0.10 0.27 0.40 0.73 0.95 0.78 0.91 0.67 0.41 0.30 0.25 0.25 0.34 0.49 0.61 0.73 0.76 0.95 1.32 1.70 2.01 2.19 1.99 1.68 1.52 1.46 1.31 1.16 1.01 0.92 1.02 0.91 0.81 0.71 0.62 0.59 0.62 0.57 0.53 0.62 0.64 0.77 0.69 0.67 0.63
0.01 0.02 0.08 0.17 0.29 0.61 0.61 0.59 0.89 0.68 0.47 0.32 0.22 0.17 0.18 0.19 0.23 0.33 0.40 0.49 0.62 0.76 0.98 1.22 1.53 1.76 1.74 1.56 1.45 1.39 1.37 1.30 1.17 0.97 0.89 0.83 0.79 0.77 0.72 0.71 0.72 0.65 0.57 0.58 0.59 0.65 0.68 0.75 0.81
0.02 0.03 0.16 0.37 0.63 0.83 0.49 0.62 0.97 0.56 0.36 0.21 0.17 0.16 0.17 0.14 0.18 0.28 0.35 0.33 0.44 0.54 0.63 0.77 1.05 1.25 1.34 1.36 1.34 1.27 1.35 1.35 1.23 1.08 0.94 0.86 0.74 0.70 0.70 0.70 0.76 0.74 0.72 0.68 0.66 0.63 0.64 0.72 0.79
0.02 0.02 0.06 0.12 0.25 0.41 0.48 1.08 0.91 0.38 0.23 0.19 0.16 0.16 0.15 0.14 0.14 0.22 0.30 0.30 0.31 0.37 0.48 0.62 0.81 0.96 1.02 1.07 1.15 1.15 1.13 1.07 1.12 1.17 1.04 0.91 0.82 0.75 0.70 0.71 0.67 0.67 0.70 0.70 0.79 0.65 0.60 0.64 0.65
0.02 0.02 0.03 0.04 0.06 0.25 0.58 0.76 0.48 0.21 0.18 0.21 0.17 0.14 0.13 0.17 0.21 0.21 0.27 0.28 0.23 0.28 0.36 0.43 0.59 0.72 0.80 0.91 1.02 1.01 1.01 0.96 0.98 0.99 0.94 0.87 0.89 0.86 0.79 0.71 0.69 0.71 0.73 0.74 0.79 0.73 0.73 0.72 0.62
0.03 0.02 0.02 0.02 0.05 0.18 0.43 0.67 0.67 0.38 0.28 0.24 0.20 0.16 0.14 0.19 0.27 0.26 0.25 0.31 0.27 0.26 0.32 0.36 0.46 0.58 0.68 0.78 0.85 0.85 0.96 0.95 1.03 1.00 0.90 0.83 0.79 0.76 0.79 0.76 0.69 0.70 0.75 0.81 0.84 0.84 0.90 0.93 0.84
0.04 0.03 0.03 0.03 0.04 0.09 0.28 0.43 0.45 0.34 0.31 0.24 0.19 0.19 0.18 0.18 0.24 0.24 0.20 0.23 0.23 0.23 0.25 0.28 0.39 0.51 0.60 0.71 0.77 0.84 0.86 0.89 0.96 1.00 0.99 0.93 0.86 0.82 0.80 0.79 0.74 0.71 0.74 0.78 0.81 0.81 0.92 1.05 1.12
0.05 0.06 0.06 0.05 0.05 0.06 0.12 0.20 0.21 0.23 0.28 0.25 0.25 0.26 0.22 0.16 0.15 0.18 0.18 0.18 0.17 0.21 0.22 0.23 0.28 0.36 0.45 0.63 0.76 0.80 0.88 0.93 0.92 0.93 1.06 1.07 1.03 0.98 0.96 0.92 0.90 0.83 0.76 0.79 0.78 0.73 0.78 0.95 1.14

GEFSSGP_prec_meanprecacc_150.txt.gz
Total_Precipitation_Accumulation
0.02 0.06 0.12 0.29 0.88 1.12 0.84 0.50 0.41 0.33 0.33 0.29 0.30 0.30 0.36 0.52 0.77 1.11 0.52 0.17 0.06 0.04 0.06 0.15 0.26 0.24 0.19 0.19 0.19 0.22 0.22 0.23 0.21 0.21 0.23 0.23 0.21 0.17 0.18 0.20 0.24 0.30 0.32 0.31 0.38 0.39 0.37 0.39 0.45
0.05 0.07 0.15 0.46 0.90 0.85 0.60 0.44 0.36 0.26 0.29 0.34 0.47 0.47 0.38 0.46 0.45 0.38 0.30 0.21 0.08 0.05 0.05 0.07 0.16 0.19 0.18 0.17 0.18 0.21 0.20 0.18 0.17 0.17 0.19 0.20 0.20 0.18 0.18 0.21 0.26 0.30 0.30 0.31 0.38 0.36 0.36 0.35 0.40
0.07 0.10 0.20 0.52 0.61 0.44 0.34 0.23 0.24 0.28 0.37 0.46 0.52 0.55 0.56 0.53 0.41 0.36 0.30 0.19 0.14 0.10 0.07 0.09 0.13 0.15 0.16 0.18 0.18 0.20 0.20 0.17 0.16 0.16 0.18 0.19 0.19 0.19 0.21 0.24 0.27 0.33 0.35 0.33 0.33 0.32 0.36 0.37 0.40
0.07 0.14 0.28 0.39 0.26 0.14 0.13 0.15 0.23 0.34 0.54 0.77 0.77 0.72 0.65 0.45 0.34 0.30 0.33 0.24 0.20 0.13 0.08 0.11 0.15 0.14 0.15 0.16 0.17 0.19 0.18 0.16 0.17 0.17 0.18 0.19 0.19 0.21 0.22 0.23 0.29 0.36 0.40 0.38 0.37 0.37 0.38 0.37 0.39
0.06 0.19 0.35 0.31 0.15 0.10 0.11 0.16 0.27 0.41 0.59 0.79 0.83 0.87 0.84 0.55 0.36 0.34 0.31 0.30 0.24 0.18 0.11 0.11 0.19 0.18 0.17 0.18 0.20 0.20 0.18 0.17 0.16 0.17 0.19 0.22 0.22 0.23 0.24 0.26 0.32 0.36 0.38 0.37 0.37 0.38 0.37 0.37 0.39
0.05 0.18 0.24 0.20 0.11 0.08 0.12 0.18 0.28 0.42 0.60 0.78 1.03 1.10 0.98 0.72 0.62 0.54 0.42 0.50 0.37 0.27 0.18 0.20 0.26 0.27 0.24 0.24 0.26 0.26 0.21 0.20 0.20 0.20 0.23 0.24 0.24 0.26 0.28 0.32 0.35 0.37 0.39 0.37 0.36 0.36 0.34 0.35 0.43
0.02 0.09 0.13 0.12 0.09 0.08 0.11 0.17 0.28 0.45 0.60 0.86 1.14 1.26 1.05 0.85 0.75 0.68 0.63 0.69 0.70 0.53 0.40 0.35 0.33 0.32 0.30 0.33 0.34 0.31 0.27 0.25 0.26 0.27 0.26 0.25 0.25 0.27 0.31 0.39 0.40 0.40 0.42 0.39 0.37 0.36 0.38 0.41 0.49
0.02 0.04 0.08 0.07 0.05 0.07 0.12 0.17 0.31 0.53 0.71 0.94 1.13 1.26 1.32 0.99 0.81 0.89 1.08 1.22 1.30 1.14 0.90 0.66 0.46 0.46 0.38 0.36 0.38 0.37 0.31 0.30 0.30 0.30 0.28 0.31 0.36 0.41 0.48 0.51 0.47 0.50 0.53 0.54 0.55 0.53 0.53 0.61 0.68
0.02 0.04 0.06 0.03 0.04 0.11 0.15 0.19 0.28 0.39 0.60 0.83 1.02 1.08 0.99 0.93 1.07 1.29 1.64 1.67 1.49 1.49 1.30 1.16 0.92 0.66 0.63 0.55 0.47 0.54 0.51 0.50 0.53 0.60 0.58 0.63 0.82 0.85 0.93 0.80 0.75 0.79 0.86 0.91 0.97 0.98 0.98 0.96 0.88
0.01 0.02 0.03 0.02 0.02 0.05 0.12 0.18 0.27 0.42 0.83 1.40 1.39 1.05 0.83 1.02 1.28 1.47 1.75 1.97 1.56 1.51 1.34 1.34 1.27 0.96 0.83 0.76 0.91 1.12 1.02 1.04 1.05 1.22 1.10 1.30 1.41 1.25 0.90 0.95 1.07 1.17 1.42 1.52 1.61 1.67 1.60 1.45 1.28
0.00 0.00 0.01 0.01 0.01 0.01 0.05 0.12 0.22 0.46 0.92 1.61 1.78 1.32 1.13 1.23 1.59 1.61 1.84 2.01 1.92 1.74 1.61 1.34 1.44 1.25 1.16 1.23 1.29 1.40 1.48 1.48 1.46 1.52 1.53 1.72 1.61 1.37 1.21 1.40 1.66 1.80 1.96 2.12 2.26 2.28 2.00 1.99 2.10
0.00 0.00 0.00 0.01 0.01 0.02 0.09 0.17 0.27 0.35 0.77 1.11 1.09 0.99 1.15 1.37 1.69 1.88 1.93 2.14 2.17 2.01 1.91 1.77 1.77 1.72 1.65 1.63 1.54 1.41 1.25 1.28 1.41 1.55 1.60 1.77 1.80 1.83 1.79 1.86 1.93 2.07 2.37 2.70 2.69 2.74 2.67 2.73 2.60
0.00 0.00 0.00 0.02 0.03 0.04 0.10 0.14 0.26 0.41 0.53 0.64 0.62 0.80 1.23 1.52 1.90 2.21 2.54 2.73 2.79 2.71 2.55 2.52 2.60 2.35 2.09 1.92 1.59 1.30 1.17 1.06 1.16 1.28 1.39 1.45 1.68 1.89 1.90 1.74 1.77 1.77 1.99 2.38 2.79 2.84 3.07 3.14 2.86
0.00 0.00 0.01 0.03 0.04 0.05 0.09 0.13 0.28 0.49 0.50 0.62 0.77 1.00 1.38 1.83 2.22 2.46 3.19 3.55 3.77 3.70 3.51 3.30 3.31 2.80 2.43 2.11 1.70 1.45 1.23 1.18 1.11 1.05 1.11 1.34 1.49 1.68 1.64 1.62 1.74 1.80 1.78 1.93 2.33 2.58 2.87 2.90 2.60
0.01 0.04 0.06 0.07 0.05 0.06 0.10 0.25 0.43 0.55 0.75 0.78 0.96 1.18 1.51 2.09 2.55 3.00 3.53 4.25 4.67 4.82 4.41 3.78 3.49 3.13 2.80 2.48 1.97 1.55 1.34 1.13 1.10 1.03 1.02 1.11 1.24 1.38 1.37 1.44 1.42 1.48 1.49 1.52 1.68 1.92 2.15 2.16 2.09
0.03 0.10 0.20 0.12 0.07 0.08 0.13 0.49 0.67 0.58 0.87 1.21 1.16 1.43 1.82 2.33 2.79 3.44 4.13 4.95 5.47 5.62 4.99 4.21 3.52 3.50 3.29 2.91 2.25 1.72 1.40 1.20 1.04 0.96 0.88 0.86 0.91 0.89 0.93 0.98 0.98 0.96 0.91 0.99 1.20 1.32 1.49 1.72 1.89
0.03 0.08 0.16 0.18 0.12 0.10 0.19 0.61 0.78 0.59 0.74 1.04 1.28 1.52 1.94 2.30 2.61 3.23 3.89 4.71 5.31 5.81 5.57 4.87 4.59 4.33 3.66 2.88 2.21 1.74 1.44 1.27 1.08 0.99 0.87 0.82 0.73 0.69 0.74 0.79 0.86 0.67 0.64 0.69 0.71 0.95 1.10 1.33 1.47
0.02 0.04 0.10 0.22 0.17 0.18 0.26 0.47 0.74 0.78 0.95 1.15 1.30 1.44 1.72 1.88 2.13 2.64 3.22 3.70 4.29 4.78 4.67 4.53 4.54 4.04 3.41 2.73 2.20 1.81 1.51 1.27 1.08 0.97 0.90 0.84 0.76 0.69 0.74 0.67 0.64 0.54 0.58 0.67 0.77 0.94 0.94 0.97 1.09
0.02 0.04 0.08 0.15 0.16 0.23 0.36 0.50 0.71 0.87 1.10 1.26 1.29 1.25 1.31 1.47 1.75 2.03 2.43 2.85 3.05 3.22 3.31 3.57 3.74 3.42 2.88 2.41 1.86 1.56 1.42 1.23 1.09 0.97 0.82 0.81 0.73 0.74 0.76 0.65 0.69 0.60 0.60 0.61 0.62 0.74 0.78 0.75 0.75
0.03 0.06 0.11 0.14 0.14 0.19 0.35 0.63 0.81 0.89 0.91 0.99 1.10 1.05 1.07 1.23 1.34 1.46 1.67 2.00 2.08 2.30 2.61 2.96 3.17 2.98 2.42 2.13 1.84 1.63 1.48 1.32 1.22 1.11 0.92 0.76 0.71 0.69 0.62 0.71 0.59 0.58 0.64 0.63 0.65 0.73 0.75 0.66 0.66
0.04 0.05 0.06 0.10 0.11 0.19 0.35 0.87 0.99 0.87 0.78 0.69 0.80 0.85 0.83 0.90 1.00 1.00 1.09 1.26 1.56 2.03 2.17 2.20 2.43 2.59 2.29 2.12 1.99 1.81 1.65 1.42 1.31 1.18 0.98 0.75 0.67 0.65 0.63 0.60 0.58 0.67 0.54 0.66 0.76 0.75 0.74 0.73 0.65
0.04 0.03 0.02 0.02 0.07 0.30 0.42 0.87 0.99 0.87 0.87 0.68 0.63 0.62 0.54 0.53 0.68 0.82 0.83 0.89 1.09 1.41 1.68 1.92 2.14 2.27 2.14 1.99 1.77 1.56 1.33 1.14 1.00 0.97 0.96 0.90 0.79 0.68 0.64 0.56 0.61 0.69 0.60 0.78 0.61 0.63 0.73 0.74 0.64
0.01 0.01 0.01 0.03 0.10 0.27 0.40 0.73 0.95 0.79 0.92 0.67 0.42 0.31 0.26 0.27 0.37 0.54 0.65 0.74 0.77 0.97 1.34 1.74 2.05 2.24 2.06 1.75 1.59 1.54 1.39 1.25 1.14 1.03 1.12 1.01 0.93 0.81 0.71 0.66 0.67 0.62 0.58 0.66 0.68 0.81 0.73 0.71 0.66
0.01 0.02 0.08 0.17 0.29 0.61 0.61 0.59 0.89 0.68 0.47 0.32 0.22 0.17 0.19 0.20 0.25 0.34 0.41 0.50 0.64 0.77 1.00 1.25 1.55 1.80 1.79 1.61 1.51 1.47 1.44 1.38 1.25 1.04 1.00 0.94 0.90 0.87 0.82 0.83 0.80 0.71 0.62 0.63 0.64 0.71 0.74 0.79 0.85
0.02 0.03 0.16 0.37 0.63 0.83 0.49 0.62 0.97 0.56 0.36 0.22 0.17 0.16 0.17 0.15 0.21 0.30 0.37 0.34 0.45 0.55 0.65 0.78 1.07 1.28 1.38 1.42 1.41 1.34 1.42 1.43 1.30 1.14 1.01 0.95 0.82 0.77 0.77 0.78 0.84 0.79 0.76 0.74 0.72 0.70 0.70 0.77 0.83
0.02 0.02 0.06 0.12 0.25 0.41 0.48 1.08 0.92 0.39 0.24 0.20 0.16 0.17 0.16 0.15 0.16 0.25 0.33 0.31 0.32 0.38 0.50 0.63 0.83 0.99 1.08 1.13 1.22 1.22 1.21 1.16 1.19 1.24 1.11 0.98 0.90 0.83 0.79 0.79 0.75 0.74 0.77 0.76 0.87 0.72 0.67 0.72 0.71
0.02 0.02 0.03 0.04 0.06 0.25 0.58 0.77 0.48 0.21 0.19 0.21 0.17 0.15 0.14 0.18 0.22 0.22 0.28 0.28 0.24 0.29 0.37 0.44 0.60 0.75 0.84 0.94 1.06 1.07 1.08 1.02 1.04 1.05 1.02 0.96 0.97 0.94 0.88 0.79 0.76 0.78 0.80 0.81 0.86 0.80 0.79 0.79 0.69
0.03 0.02 0.02 0.02 0.05 0.18 0.43 0.68 0.68 0.38 0.29 0.25 0.21 0.18 0.15 0.20 0.29 0.28 0.26 0.32 0.28 0.27 0.33 0.37 0.47 0.59 0.69 0.80 0.88 0.87 1.00 1.00 1.10 1.08 0.99 0.91 0.85 0.84 0.88 0.85 0.78 0.79 0.83 0.88 0.90 0.90 0.95 0.99 0.90
0.04 0.03 0.03 0.03 0.04 0.09 0.29 0.44 0.45 0.35 0.31 0.24 0.20 0.20 0.21 0.19 0.28 0.31 0.30 0.28 0.25 0.24 0.26 0.28 0.40 0.51 0.60 0.72 0.78 0.85 0.89 0.93 1.00 1.05 1.03 0.97 0.91 0.86 0.86 0.86 0.82 0.78 0.81 0.86 0.89 0.88 0.99 1.12 1.17
0.05 0.06 0.06 0.05 0.05 0.06 0.12 0.20 0.21 0.24 0.29 0.26 0.25 0.28 0.25 0.18 0.18 0.22 0.24 0.21 0.19 0.21 0.22 0.23 0.29 0.36 0.45 0.63 0.77 0.81 0.89 0.94 0.94 0.96 1.10 1.10 1.05 1.01 1.00 0.98 0.97 0.90 0.84 0.87 0.85 0.79 0.85 1.01 1.21

GEFSSGP_prec_meanprecacc_156.txt.gz
Total_Precipitation_Accumulation
0.03 0.07 0.13 0.29 0.89 1.12 0.85 0.53 0.43 0.34 0.34 0.30 0.31 0.30 0.36 0.52 0.77 1.12 0.53 0.19 0.08 0.07 0.11 0.20 0.31 0.29 0.27 0.26 0.26 0.26 0.24 0.25 0.23 0.23 0.25 0.26 0.23 0.20 0.21 0.23 0.27 0.32 0.35 0.35 0.40 0.44 0.41 0.44 0.50
0.06 0.08 0.16 0.46 0.90 0.86 0.62 0.47 0.37 0.27 0.29 0.35 0.47 0.48 0.38 0.46 0.45 0.38 0.32 0.25 0.09 0.07 0.08 0.10 0.20 0.22 0.22 0.22 0.21 0.23 0.21 0.19 0.19 0.19 0.21 0.22 0.23 0.20 0.20 0.24 0.29 0.34 0.34 0.35 0.43 0.42 0.42 0.40 0.44
0.07 0.10 0.20 0.52 0.61 0.44 0.36 0.27 0.25 0.29 0.37 0.46 0.53 0.56 0.56 0.53 0.41 0.37 0.32 0.21 0.16 0.12 0.09 0.11 0.16 0.17 0.19 0.20 0.20 0.22 0.21 0.18 0.16 0.17 0.20 0.21 0.22 0.23 0.23 0.27 0.31 0.36 0.39 0.38 0.38 0.38 0.42 0.42 0.44
0.07 0.14 0.28 0.39 0.27 0.15 0.14 0.17 0.24 0.35 0.55 0.77 0.78 0.74 0.67 0.46 0.35 0.31 0.34 0.26 0.21 0.14 0.10 0.13 0.17 0.15 0.16 0.17 0.18 0.20 0.19 0.17 0.18 0.18 0.20 0.22 0.23 0.25 0.25 0.27 0.31 0.38 0.44 0.43 0.41 0.42 0.42 0.41 0.44
0.06 0.19 0.35 0.31 0.16 0.12 0.13 0.17 0.28 0.41 0.59 0.79 0.83 0.88 0.86 0.57 0.37 0.34 0.32 0.31 0.25 0.18 0.12 0.13 0.21 0.20 0.18 0.19 0.21 0.21 0.19 0.17 0.17 0.18 0.22 0.25 0.26 0.26 0.27 0.28 0.35 0.40 0.43 0.42 0.42 0.44 0.42 0.42 0.46
0.06 0.18 0.24 0.20 0.12 0.10 0.14 0.20 0.29 0.42 0.60 0.78 1.03 1.11 1.01 0.76 0.63 0.55 0.42 0.51 0.38 0.28 0.18 0.21 0.28 0.28 0.25 0.25 0.27 0.26 0.22 0.20 0.21 0.21 0.24 0.27 0.27 0.29 0.32 0.35 0.39 0.40 0.43 0.42 0.40 0.40 0.38 0.39 0.50
0.02 0.09 0.13 0.12 0.09 0.09 0.13 0.20 0.30 0.46 0.61 0.86 1.15 1.27 1.09 0.91 0.77 0.69 0.64 0.70 0.71 0.54 0.41 0.35 0.33 0.32 0.30 0.34 0.35 0.33 0.29 0.27 0.27 0.28 0.27 0.28 0.27 0.30 0.34 0.43 0.44 0.43 0.44 0.43 0.41 0.39 0.43 0.47 0.54
0.02 0.04 0.08 0.07 0.05 0.07 0.14 0.19 0.32 0.54 0.72 0.95 1.14 1.27 1.33 1.01 0.83 0.91 1.08 1.23 1.31 1.14 0.91 0.67 0.46 0.46 0.39 0.37 0.40 0.39 0.34 0.32 0.32 0.31 0.30 0.34 0.39 0.45 0.52 0.54 0.50 0.52 0.55 0.57 0.58 0.56 0.59 0.67 0.74
0.02 0.04 0.06 0.03 0.04 0.11 0.15 0.19 0.28 0.40 0.60 0.84 1.03 1.08 1.00 0.94 1.08 1.30 1.65 1.68 1.50 1.49 1.31 1.17 0.93 0.67 0.64 0.56 0.49 0.56 0.53 0.52 0.55 0.62 0.59 0.65 0.83 0.87 0.96 0.83 0.78 0.82 0.89 0.95 1.00 1.02 1.03 1.01 0.93
0.01 0.02 0.03 0.02 0.02 0.05 0.12 0.18 0.28 0.42 0.83 1.41 1.41 1.07 0.85 1.03 1.29 1.48 1.76 1.98 1.57 1.52 1.35 1.35 1.29 0.99 0.85 0.78 0.93 1.14 1.05 1.05 1.06 1.23 1.11 1.31 1.42 1.25 0.92 0.99 1.11 1.21 1.46 1.55 1.64 1.72 1.64 1.47 1.30
0.00 0.01 0.01 0.01 0.01 0.01 0.05 0.12 0.22 0.46 0.92 1.62 1.78 1.34 1.14 1.24 1.60 1.61 1.85 2.03 1.93 1.75 1.63 1.37 1.46 1.27 1.19 1.24 1.30 1.42 1.50 1.49 1.46 1.52 1.53 1.72 1.61 1.37 1.22 1.42 1.69 1.83 1.98 2.13 2.29 2.31 2.01 2.01 2.13
0.00 0.00 0.00 0.01 0.01 0.02 0.09 0.17 0.27 0.35 0.77 1.12 1.10 1.00 1.16 1.37 1.69 1.89 1.95 2.16 2.19 2.03 1.93 1.80 1.79 1.74 1.67 1.64 1.54 1.42 1.26 1.30 1.43 1.56 1.60 1.77 1.81 1.84 1.80 1.87 1.94 2.08 2.37 2.70 2.70 2.75 2.67 2.75 2.61
0.00 0.00 0.00 0.02 0.03 0.04 0.10 0.14 0.26 0.42 0.53 0.65 0.63 0.81 1.24 1.53 1.91 2.23 2.57 2.77 2.82 2.74 2.57 2.54 2.62 2.38 2.12 1.94 1.60 1.31 1.18 1.07 1.18 1.29 1.40 1.46 1.69 1.90 1.91 1.75 1.78 1.77 1.99 2.38 2.80 2.84 3.08 3.15 2.87
0.00 0.00 0.01 0.03 0.04 0.05 0.09 0.13 0.29 0.50 0.51 0.62 0.77 1.00 1.39 1.85 2.23 2.47 3.21 3.59 3.81 3.74 3.53 3.32 3.35 2.84 2.47 2.15 1.72 1.47 1.24 1.19 1.12 1.06 1.12 1.34 1.49 1.70 1.65 1.62 1.74 1.80 1.78 1.93 2.34 2.59 2.88 2.92 2.62
0.01 0.04 0.06 0.07 0.05 0.06 0.10 0.25 0.43 0.56 0.75 0.79 0.96 1.18 1.52 2.10 2.57 3.02 3.55 4.28 4.70 4.85 4.44 3.82 3.54 3.18 2.85 2.52 2.02 1.59 1.37 1.14 1.11 1.04 1.02 1.11 1.24 1.39 1.37 1.45 1.42 1.49 1.49 1.52 1.68 1.93 2.16 2.18 2.11
0.03 0.10 0.20 0.12 0.07 0.08 0.14 0.50 0.67 0.58 0.87 1.21 1.16 1.43 1.83 2.36 2.82 3.49 4.18 4.99 5.50 5.65 5.04 4.29 3.58 3.58 3.35 2.97 2.30 1.76 1.44 1.23 1.07 1.00 0.91 0.87 0.91 0.89 0.93 0.99 0.98 0.97 0.92 1.00 1.21 1.34 1.52 1.75 1.91
0.03 0.08 0.16 0.18 0.12 0.10 0.19 0.61 0.78 0.59 0.74 1.04 1.28 1.53 1.95 2.32 2.66 3.29 3.96 4.75 5.34 5.84 5.61 4.93 4.66 4.40 3.74 2.94 2.28 1.79 1.48 1.31 1.13 1.04 0.92 0.85 0.76 0.70 0.75 0.80 0.86 0.69 0.66 0.70 0.72 0.97 1.14 1.37 1.50
0.02 0.04 0.10 0.22 0.17 0.18 0.26 0.47 0.74 0.78 0.95 1.15 1.30 1.45 1.72 1.92 2.23 2.74 3.28 3.73 4.31 4.81 4.70 4.58 4.61 4.10 3.49 2.80 2.26 1.87 1.56 1.32 1.13 1.02 0.99 0.92 0.83 0.74 0.77 0.70 0.66 0.56 0.61 0.70 0.80 0.98 0.98 1.01 1.13
0.02 0.04 0.08 0.15 0.16 0.23 0.36 0.50 0.71 0.87 1.10 1.26 1.29 1.25 1.32 1.54 1.83 2.14 2.53 2.87 3.08 3.24 3.33 3.62 3.80 3.48 2.95 2.46 1.92 1.62 1.47 1.27 1.12 1.02 0.90 0.89 0.82 0.83 0.82 0.69 0.73 0.63 0.62 0.65 0.69 0.79 0.82 0.80 0.80
0.03 0.06 0.11 0.14 0.14 0.19 0.35 0.63 0.81 0.89 0.91 0.99 1.10 1.06 1.08 1.29 1.38 1.48 1.70 2.02 2.11 2.32 2.63 2.98 3.21 3.04 2.47 2.18 1.89 1.69 1.53 1.36 1.28 1.18 1.00 0.83 0.79 0.77 0.69 0.76 0.64 0.62 0.67 0.69 0.70 0.77 0.80 0.73 0.71
0.04 0.05 0.06 0.10 0.11 0.19 0.35 0.87 0.99 0.87 0.79 0.69 0.80 0.86 0.83 0.91 1.02 1.01 1.10 1.26 1.57 2.04 2.19 2.23 2.46 2.64 2.35 2.19 2.06 1.88 1.72 1.47 1.38 1.28 1.08 0.83 0.74 0.73 0.72 0.67 0.66 0.76 0.60 0.73 0.83 0.81 0.79 0.77 0.69
0.04 0.03 0.02 0.02 0.07 0.30 0.42 0.87 0.99 0.87 0.87 0.68 0.63 0.63 0.54 0.53 0.69 0.83 0.84 0.90 1.10 1.42 1.70 1.94 2.17 2.31 2.21 2.07 1.85 1.63 1.39 1.20 1.09 1.06 1.05 0.98 0.87 0.77 0.75 0.67 0.71 0.79 0.68 0.85 0.68 0.69 0.77 0.77 0.67
0.01 0.01 0.01 0.03 0.10 0.27 0.40 0.73 0.95 0.79 0.92 0.68 0.42 0.31 0.26 0.27 0.38 0.55 0.67 0.75 0.78 0.98 1.36 1.77 2.08 2.28 2.15 1.84 1.66 1.61 1.47 1.34 1.24 1.13 1.20 1.08 1.01 0.89 0.79 0.76 0.77 0.73 0.68 0.74 0.75 0.88 0.79 0.76 0.71
0.01 0.02 0.08 0.17 0.29 0.61 0.61 0.59 0.89 0.68 0.48 0.32 0.22 0.17 0.19 0.20 0.26 0.35 0.42 0.51 0.64 0.78 1.02 1.29 1.58 1.84 1.86 1.69 1.58 1.56 1.53 1.49 1.35 1.11 1.05 0.99 0.95 0.93 0.90 0.91 0.87 0.79 0.70 0.70 0.71 0.79 0.82 0.86 0.91
0.02 0.03 0.16 0.37 0.63 0.83 0.49 0.62 0.97 0.56 0.36 0.22 0.17 0.16 0.17 0.15 0.21 0.31 0.37 0.34 0.46 0.56 0.66 0.81 1.09 1.31 1.44 1.50 1.49 1.43 1.50 1.50 1.35 1.18 1.06 1.01 0.87 0.83 0.84 0.85 0.91 0.85 0.82 0.80 0.79 0.77 0.77 0.84 0.88
0.02 0.02 0.06 0.12 0.25 0.41 0.48 1.08 0.92 0.39 0.24 0.20 0.16 0.17 0.16 0.15 0.16 0.25 0.34 0.31 0.32 0.38 0.51 0.64 0.85 1.02 1.13 1.19 1.27 1.28 1.26 1.20 1.22 1.27 1.14 1.03 0.95 0.89 0.85 0.85 0.82 0.81 0.82 0.82 0.93 0.78 0.71 0.76 0.75
0.02 0.02 0.03 0.04 0.06 0.25 0.58 0.77 0.48 0.21 0.19 0.21 0.17 0.15 0.15 0.19 0.23 0.24 0.30 0.30 0.25 0.29 0.38 0.45 0.62 0.76 0.86 0.96 1.08 1.09 1.11 1.05 1.06 1.08 1.04 0.98 1.01 0.99 0.92 0.85 0.83 0.86 0.87 0.88 0.92 0.85 0.84 0.84 0.74
0.03 0.02 0.02 0.02 0.05 0.18 0.43 0.68 0.68 0.38 0.29 0.25 0.21 0.18 0.15 0.21 0.30 0.30 0.27 0.32 0.28 0.27 0.33 0.38 0.47 0.60 0.70 0.81 0.89 0.89 1.02 1.03 1.13 1.10 1.01 0.94 0.89 0.88 0.92 0.90 0.83 0.87 0.91 0.96 0.98 0.95 1.01 1.06 0.95
0.04 0.03 0.03 0.03 0.04 0.09 0.29 0.44 0.45 0.35 0.31 0.24 0.20 0.20 0.21 0.19 0.28 0.31 0.30 0.29 0.25 0.24 0.26 0.29 0.40 0.52 0.61 0.72 0.78 0.85 0.90 0.95 1.01 1.06 1.05 1.00 0.94 0.91 0.92 0.90 0.85 0.83 0.86 0.92 0.95 0.93 1.05 1.18 1.22
0.05 0.06 0.06 0.05 0.05 0.06 0.12 0.20 0.21 0.24 0.29 0.26 0.25 0.28 0.25 0.18 0.18 0.22 0.24 0.22 0.19 0.22 0.23 0.24 0.29 0.37 0.45 0.63 0.77 0.81 0.90 0.95 0.94 0.96 1.12 1.13 1.08 1.05 1.05 1.03 1.01 0.94 0.88 0.92 0.90 0.84 0.89 1.06 1.25

GEFSSGP_prec_meanprecacc_162.txt.gz
Total_Precipitation_Accumulation
0.03 0.07 0.13 0.29 0.89 1.12 0.85 0.53 0.43 0.35 0.35 0.31 0.32 0.31 0.37 0.53 0.79 1.13 0.54 0.20 0.10 0.10 0.15 0.26 0.41 0.38 0.36 0.33 0.33 0.33 0.30 0.30 0.28 0.28 0.31 0.32 0.30 0.25 0.25 0.28 0.32 0.39 0.42 0.40 0.45 0.49 0.47 0.50 0.56
0.06 0.08 0.16 0.46 0.90 0.86 0.62 0.47 0.38 0.28 0.31 0.35 0.48 0.49 0.39 0.47 0.46 0.39 0.33 0.26 0.11 0.09 0.11 0.13 0.27 0.31 0.30 0.29 0.29 0.29 0.27 0.23 0.22 0.22 0.26 0.29 0.30 0.26 0.26 0.29 0.34 0.40 0.40 0.42 0.50 0.47 0.48 0.47 0.50
0.07 0.10 0.20 0.52 0.61 0.45 0.36 0.27 0.26 0.29 0.38 0.47 0.53 0.57 0.57 0.54 0.42 0.38 0.32 0.22 0.17 0.14 0.12 0.16 0.21 0.21 0.23 0.24 0.25 0.27 0.26 0.23 0.19 0.20 0.25 0.28 0.29 0.30 0.30 0.34 0.37 0.42 0.44 0.45 0.46 0.45 0.48 0.49 0.51
0.07 0.14 0.28 0.39 0.27 0.16 0.15 0.17 0.24 0.35 0.55 0.77 0.78 0.75 0.67 0.47 0.35 0.31 0.34 0.26 0.22 0.16 0.12 0.17 0.21 0.18 0.18 0.20 0.21 0.24 0.23 0.21 0.22 0.22 0.25 0.27 0.30 0.32 0.32 0.34 0.37 0.44 0.49 0.51 0.51 0.50 0.51 0.51 0.52
0.06 0.19 0.35 0.31 0.16 0.13 0.14 0.17 0.28 0.41 0.59 0.79 0.83 0.89 0.87 0.60 0.39 0.35 0.32 0.32 0.25 0.19 0.14 0.17 0.26 0.23 0.20 0.21 0.24 0.24 0.22 0.20 0.21 0.22 0.25 0.30 0.32 0.33 0.35 0.36 0.40 0.45 0.48 0.48 0.51 0.51 0.50 0.54 0.57
0.06 0.18 0.24 0.20 0.12 0.11 0.16 0.21 0.29 0.43 0.60 0.78 1.04 1.12 1.03 0.78 0.65 0.55 0.43 0.51 0.39 0.29 0.20 0.23 0.32 0.32 0.29 0.28 0.30 0.30 0.25 0.23 0.24 0.25 0.28 0.32 0.34 0.36 0.40 0.42 0.45 0.45 0.49 0.48 0.45 0.46 0.45 0.46 0.60
0.02 0.09 0.13 0.12 0.09 0.09 0.15 0.22 0.30 0.47 0.62 0.86 1.15 1.28 1.11 0.93 0.79 0.70 0.64 0.71 0.72 0.54 0.41 0.37 0.36 0.35 0.35 0.39 0.39 0.36 0.31 0.30 0.30 0.31 0.31 0.32 0.32 0.36 0.41 0.50 0.52 0.48 0.50 0.50 0.48 0.47 0.51 0.53 0.62
0.02 0.04 0.08 0.07 0.06 0.08 0.15 0.20 0.33 0.55 0.73 0.95 1.14 1.28 1.35 1.03 0.84 0.91 1.09 1.24 1.32 1.16 0.92 0.69 0.48 0.50 0.43 0.41 0.44 0.43 0.37 0.35 0.35 0.35 0.33 0.38 0.45 0.50 0.58 0.61 0.58 0.57 0.62 0.65 0.64 0.63 0.66 0.74 0.79
0.02 0.04 0.06 0.04 0.04 0.11 0.16 0.20 0.28 0.40 0.60 0.84 1.03 1.08 1.00 0.95 1.09 1.30 1.65 1.69 1.51 1.50 1.32 1.18 0.94 0.70 0.68 0.60 0.52 0.61 0.57 0.55 0.58 0.66 0.62 0.70 0.91 0.93 1.02 0.89 0.82 0.86 0.96 1.04 1.05 1.08 1.09 1.07 0.99
0.01 0.02 0.03 0.02 0.02 0.05 0.12 0.18 0.28 0.42 0.83 1.41 1.41 1.07 0.86 1.04 1.29 1.48 1.76 1.99 1.58 1.53 1.36 1.36 1.30 1.00 0.87 0.79 0.96 1.19 1.09 1.09 1.10 1.28 1.16 1.36 1.48 1.31 0.95 1.03 1.15 1.27 1.53 1.65 1.71 1.78 1.69 1.51 1.35
0.01 0.01 0.01 0.01 0.01 0.01 0.05 0.12 0.22 0.47 0.93 1.62 1.79 1.35 1.15 1.25 1.61 1.62 1.86 2.05 1.95 1.77 1.64 1.37 1.48 1.30 1.22 1.27 1.33 1.45 1.54 1.53 1.49 1.56 1.58 1.77 1.64 1.39 1.24 1.45 1.75 1.91 2.05 2.22 2.35 2.36 2.04 2.03 2.18
0.00 0.00 0.00 0.01 0.01 0.02 0.09 0.17 0.27 0.35 0.78 1.13 1.11 1.00 1.16 1.37 1.70 1.91 1.97 2.18 2.21 2.05 1.95 1.83 1.81 1.77 1.71 1.67 1.57 1.45 1.29 1.32 1.45 1.58 1.63 1.80 1.84 1.86 1.83 1.90 1.99 2.14 2.44 2.79 2.78 2.81 2.70 2.77 2.65
0.00 0.00 0.00 0.02 0.03 0.04 0.10 0.14 0.26 0.42 0.53 0.66 0.63 0.81 1.24 1.53 1.91 2.24 2.60 2.80 2.84 2.76 2.60 2.59 2.66 2.43 2.15 1.98 1.64 1.34 1.21 1.10 1.20 1.32 1.42 1.48 1.72 1.92 1.93 1.78 1.81 1.81 2.04 2.45 2.86 2.89 3.11 3.18 2.90
0.00 0.00 0.01 0.03 0.04 0.05 0.09 0.13 0.29 0.50 0.51 0.62 0.77 1.01 1.39 1.85 2.23 2.48 3.23 3.61 3.83 3.76 3.57 3.37 3.41 2.93 2.52 2.20 1.78 1.51 1.28 1.22 1.16 1.09 1.14 1.36 1.52 1.73 1.67 1.65 1.78 1.85 1.83 1.98 2.38 2.63 2.93 2.96 2.65
0.01 0.04 0.06 0.07 0.05 0.06 0.10 0.25 0.43 0.56 0.75 0.79 0.96 1.18 1.52 2.11 2.58 3.04 3.57 4.30 4.73 4.88 4.47 3.86 3.58 3.23 2.90 2.57 2.06 1.64 1.42 1.19 1.15 1.08 1.07 1.14 1.27 1.43 1.41 1.49 1.47 1.54 1.54 1.57 1.73 1.97 2.21 2.23 2.16
0.03 0.10 0.20 0.12 0.07 0.08 0.14 0.50 0.67 0.58 0.87 1.21 1.16 1.43 1.84 2.37 2.84 3.51 4.19 5.01 5.54 5.68 5.06 4.32 3.61 3.61 3.41 3.02 2.33 1.80 1.48 1.28 1.12 1.05 0.96 0.91 0.94 0.94 0.99 1.05 1.04 1.02 0.97 1.04 1.27 1.39 1.57 1.82 1.98
0.03 0.08 0.16 0.18 0.12 0.10 0.19 0.61 0.78 0.59 0.74 1.04 1.28 1.53 1.96 2.33 2.67 3.31 3.97 4.76 5.36 5.86 5.64 4.97 4.73 4.45 3.79 3.00 2.33 1.86 1.55 1.37 1.19 1.10 0.98 0.91 0.80 0.75 0.81 0.88 0.94 0.75 0.73 0.76 0.76 1.02 1.20 1.43 1.58
0.02 0.04 0.10 0.22 0.17 0.18 0.26 0.47 0.74 0.78 0.95 1.15 1.30 1.45 1.73 1.93 2.26 2.77 3.29 3.74 4.32 4.82 4.71 4.62 4.67 4.16 3.54 2.87 2.31 1.94 1.66 1.38 1.18 1.09 1.06 0.99 0.88 0.79 0.85 0.77 0.73 0.63 0.69 0.80 0.90 1.08 1.09 1.09 1.20
0.02 0.04 0.08 0.15 0.16 0.23 0.36 0.50 0.71 0.87 1.10 1.26 1.29 1.25 1.33 1.55 1.85 2.15 2.53 2.88 3.08 3.24 3.34 3.62 3.82 3.50 2.98 2.53 1.99 1.71 1.56 1.36 1.20 1.09 0.97 0.96 0.88 0.91 0.91 0.76 0.83 0.73 0.73 0.76 0.80 0.90 0.93 0.89 0.87
0.03 0.06 0.11 0.14 0.14 0.19 0.35 0.63 0.81 0.89 0.91 0.99 1.10 1.06 1.08 1.29 1.38 1.48 1.70 2.03 2.11 2.33 2.64 2.99 3.22 3.06 2.50 2.22 1.96 1.77 1.62 1.44 1.35 1.25 1.08 0.92 0.86 0.85 0.77 0.88 0.75 0.74 0.81 0.82 0.82 0.90 0.90 0.82 0.79
0.04 0.05 0.06 0.10 0.11 0.19 0.35 0.87 0.99 0.87 0.79 0.69 0.80 0.86 0.83 0.92 1.02 1.01 1.10 1.27 1.57 2.04 2.19 2.23 2.47 2.66 2.39 2.22 2.12 1.97 1.82 1.57 1.49 1.41 1.21 0.92 0.81 0.80 0.80 0.77 0.76 0.88 0.72 0.87 0.99 0.95 0.93 0.90 0.80
0.04 0.03 0.02 0.02 0.07 0.30 0.42 0.87 0.99 0.87 0.87 0.68 0.63 0.63 0.54 0.53 0.69 0.83 0.85 0.90 1.10 1.43 1.70 1.94 2.18 2.33 2.24 2.12 1.89 1.69 1.47 1.31 1.24 1.24 1.25 1.10 0.95 0.83 0.81 0.76 0.81 0.89 0.76 0.98 0.80 0.80 0.91 0.92 0.79
0.01 0.01 0.01 0.03 0.10 0.27 0.40 0.73 0.95 0.79 0.92 0.68 0.42 0.31 0.26 0.27 0.38 0.55 0.67 0.75 0.79 0.98 1.37 1.78 2.09 2.30 2.18 1.88 1.70 1.66 1.53 1.43 1.35 1.27 1.34 1.20 1.10 0.96 0.84 0.83 0.86 0.82 0.76 0.83 0.87 1.01 0.93 0.88 0.82
0.01 0.02 0.08 0.17 0.29 0.61 0.61 0.59 0.89 0.68 0.48 0.32 0.22 0.17 0.19 0.20 0.26 0.35 0.42 0.52 0.66 0.79 1.02 1.29 1.60 1.86 1.88 1.72 1.62 1.61 1.59 1.55 1.41 1.19 1.14 1.06 1.03 1.00 0.96 0.98 0.96 0.87 0.78 0.80 0.83 0.93 0.94 0.99 1.03
0.02 0.03 0.16 0.37 0.63 0.83 0.49 0.62 0.97 0.56 0.36 0.22 0.17 0.16 0.17 0.15 0.21 0.31 0.37 0.35 0.48 0.57 0.66 0.81 1.10 1.33 1.47 1.52 1.52 1.48 1.56 1.56 1.40 1.23 1.13 1.08 0.93 0.89 0.91 0.94 1.01 0.94 0.91 0.88 0.90 0.89 0.87 0.94 0.99
0.02 0.02 0.06 0.12 0.25 0.41 0.48 1.08 0.92 0.39 0.24 0.20 0.16 0.17 0.16 0.15 0.16 0.25 0.34 0.34 0.35 0.39 0.51 0.64 0.85 1.03 1.14 1.21 1.31 1.32 1.31 1.24 1.25 1.30 1.18 1.07 1.01 0.94 0.92 0.94 0.92 0.91 0.92 0.90 1.04 0.88 0.81 0.86 0.85
0.02 0.02 0.03 0.04 0.06 0.25 0.58 0.77 0.48 0.21 0.19 0.21 0.17 0.15 0.15 0.19 0.23 0.24 0.30 0.33 0.26 0.30 0.38 0.45 0.62 0.76 0.86 0.98 1.11 1.13 1.15 1.08 1.09 1.10 1.08 1.01 1.07 1.06 0.98 0.91 0.89 0.92 0.95 0.98 1.04 0.95 0.93 0.95 0.84
0.03 0.02 0.02 0.02 0.05 0.18 0.43 0.68 0.68 0.38 0.29 0.25 0.21 0.18 0.15 0.21 0.30 0.30 0.27 0.32 0.28 0.27 0.33 0.38 0.47 0.60 0.70 0.82 0.90 0.90 1.05 1.05 1.15 1.13 1.04 0.96 0.92 0.92 0.95 0.94 0.87 0.92 0.98 1.05 1.08 1.06 1.12 1.19 1.06
0.04 0.03 0.03 0.03 0.04 0.09 0.29 0.44 0.45 0.35 0.31 0.24 0.20 0.20 0.21 0.19 0.28 0.31 0.30 0.29 0.25 0.24 0.26 0.29 0.40 0.52 0.61 0.72 0.79 0.86 0.91 0.96 1.02 1.06 1.06 1.03 0.98 0.95 0.95 0.93 0.89 0.90 0.94 0.99 1.03 1.02 1.15 1.27 1.31
0.05 0.06 0.06 0.05 0.05 0.06 0.12 0.20 0.21 0.24 0.29 0.26 0.25 0.28 0.25 0.18 0.18 0.22 0.24 0.22 0.19 0.22 0.23 0.24 0.29 0.37 0.45 0.63 0.77 0.81 0.90 0.96 0.95 0.97 1.14 1.15 1.11 1.08 1.08 1.06 1.05 0.99 0.94 0.98 0.97 0.91 0.97 1.14 1.32

GEFSSGP_prec_meanprecacc_168.txt.gz
Total_Precipitation_Accumulation
0.03 0.07 0.13 0.31 0.94 1.14 0.86 0.55 0.45 0.36 0.36 0.31 0.32 0.32 0.38 0.56 0.84 1.19 0.59 0.22 0.12 0.12 0.16 0.29 0.45 0.43 0.40 0.38 0.38 0.39 0.36 0.36 0.32 0.33 0.37 0.38 0.39 0.33 0.31 0.36 0.40 0.46 0.48 0.44 0.49 0.54 0.52 0.55 0.61
0.06 0.08 0.16 0.48 0.93 0.87 0.64 0.49 0.40 0.29 0.32 0.35 0.48 0.49 0.40 0.48 0.47 0.42 0.35 0.27 0.12 0.10 0.12 0.16 0.31 0.36 0.35 0.33 0.33 0.34 0.32 0.28 0.26 0.27 0.31 0.35 0.38 0.35 0.33 0.36 0.40 0.46 0.45 0.46 0.53 0.52 0.55 0.52 0.55
0.08 0.10 0.21 0.55 0.64 0.46 0.38 0.28 0.26 0.29 0.38 0.47 0.54 0.58 0.58 0.55 0.43 0.40 0.34 0.23 0.18 0.15 0.13 0.18 0.25 0.26 0.29 0.30 0.31 0.33 0.32 0.29 0.25 0.25 0.29 0.33 0.36 0.36 0.35 0.42 0.44 0.48 0.50 0.49 0.49 0.51 0.57 0.55 0.54
0.07 0.14 0.28 0.41 0.31 0.17 0.15 0.17 0.24 0.35 0.55 0.77 0.78 0.75 0.68 0.48 0.36 0.32 0.34 0.27 0.23 0.16 0.13 0.18 0.24 0.21 0.22 0.24 0.27 0.31 0.30 0.28 0.27 0.28 0.30 0.32 0.36 0.38 0.38 0.39 0.43 0.51 0.55 0.56 0.57 0.56 0.57 0.57 0.56
0.06 0.19 0.36 0.33 0.17 0.14 0.14 0.17 0.28 0.42 0.60 0.79 0.83 0.89 0.89 0.62 0.39 0.35 0.33 0.34 0.26 0.20 0.15 0.18 0.27 0.24 0.22 0.24 0.28 0.30 0.27 0.26 0.26 0.28 0.31 0.35 0.37 0.39 0.41 0.43 0.46 0.51 0.55 0.54 0.57 0.56 0.55 0.59 0.62
0.06 0.19 0.26 0.22 0.12 0.11 0.16 0.21 0.29 0.43 0.60 0.78 1.04 1.12 1.06 0.81 0.66 0.56 0.43 0.52 0.39 0.29 0.21 0.23 0.32 0.33 0.30 0.30 0.33 0.32 0.27 0.26 0.27 0.29 0.33 0.37 0.39 0.41 0.46 0.50 0.54 0.50 0.54 0.53 0.50 0.51 0.50 0.50 0.64
0.03 0.09 0.14 0.13 0.10 0.10 0.16 0.22 0.30 0.47 0.62 0.86 1.15 1.28 1.14 0.97 0.81 0.71 0.65 0.71 0.72 0.57 0.46 0.37 0.37 0.36 0.36 0.40 0.41 0.38 0.33 0.32 0.32 0.35 0.35 0.36 0.37 0.42 0.47 0.57 0.60 0.53 0.55 0.56 0.53 0.52 0.57 0.59 0.67
0.02 0.05 0.09 0.08 0.07 0.09 0.15 0.20 0.33 0.55 0.73 0.95 1.14 1.28 1.36 1.04 0.85 0.92 1.10 1.25 1.33 1.17 0.96 0.71 0.50 0.51 0.45 0.42 0.45 0.45 0.38 0.37 0.36 0.37 0.36 0.43 0.51 0.56 0.64 0.66 0.62 0.62 0.67 0.70 0.68 0.66 0.70 0.78 0.83
0.02 0.04 0.07 0.04 0.04 0.12 0.16 0.20 0.29 0.40 0.60 0.84 1.03 1.09 1.00 0.95 1.09 1.31 1.66 1.71 1.52 1.52 1.34 1.19 0.95 0.71 0.70 0.63 0.53 0.63 0.59 0.56 0.61 0.69 0.66 0.80 1.08 1.04 1.12 0.94 0.85 0.90 1.00 1.08 1.08 1.09 1.11 1.09 1.02
0.01 0.02 0.03 0.02 0.02 0.06 0.12 0.18 0.28 0.43 0.84 1.41 1.41 1.08 0.87 1.04 1.30 1.49 1.78 2.00 1.60 1.55 1.38 1.38 1.32 1.02 0.90 0.83 0.99 1.26 1.14 1.14 1.19 1.39 1.25 1.49 1.63 1.47 1.03 1.07 1.17 1.31 1.58 1.70 1.75 1.81 1.72 1.55 1.38
0.01 0.01 0.01 0.01 0.01 0.01 0.05 0.12 0.22 0.47 0.94 1.63 1.79 1.35 1.16 1.26 1.62 1.64 1.88 2.07 1.96 1.78 1.66 1.39 1.50 1.33 1.26 1.33 1.38 1.52 1.61 1.61 1.59 1.67 1.68 1.88 1.74 1.45 1.30 1.53 1.82 1.99 2.14 2.33 2.42 2.41 2.10 2.09 2.21
0.00 0.00 0.00 0.01 0.01 0.02 0.09 0.17 0.27 0.36 0.79 1.13 1.11 1.00 1.17 1.38 1.71 1.92 1.98 2.20 2.23 2.08 1.96 1.84 1.83 1.80 1.74 1.71 1.61 1.49 1.34 1.37 1.52 1.66 1.70 1.88 1.95 1.94 1.93 2.02 2.12 2.28 2.55 2.94 2.92 2.93 2.78 2.83 2.68
0.00 0.00 0.00 0.02 0.03 0.04 0.10 0.14 0.26 0.42 0.54 0.66 0.63 0.82 1.25 1.54 1.92 2.25 2.61 2.81 2.87 2.79 2.62 2.61 2.68 2.46 2.19 2.02 1.69 1.37 1.25 1.14 1.24 1.37 1.47 1.53 1.78 2.00 2.03 1.88 1.91 1.90 2.11 2.53 2.98 2.99 3.20 3.24 2.94
0.00 0.00 0.01 0.03 0.04 0.05 0.10 0.14 0.29 0.50 0.51 0.62 0.77 1.01 1.40 1.86 2.24 2.48 3.23 3.62 3.86 3.79 3.59 3.39 3.44 2.96 2.55 2.24 1.82 1.55 1.31 1.26 1.19 1.14 1.18 1.39 1.58 1.80 1.76 1.74 1.87 1.92 1.90 2.06 2.45 2.69 3.01 3.04 2.73
0.01 0.04 0.06 0.07 0.05 0.06 0.11 0.28 0.43 0.56 0.75 0.79 0.96 1.19 1.52 2.11 2.58 3.04 3.57 4.31 4.74 4.90 4.50 3.89 3.61 3.27 2.93 2.61 2.10 1.68 1.45 1.23 1.19 1.12 1.10 1.17 1.31 1.49 1.49 1.58 1.55 1.60 1.60 1.64 1.79 2.04 2.31 2.33 2.25
0.03 0.10 0.20 0.12 0.07 0.08 0.14 0.52 0.68 0.58 0.87 1.21 1.17 1.44 1.84 2.37 2.84 3.51 4.19 5.02 5.55 5.70 5.10 4.35 3.65 3.65 3.44 3.06 2.39 1.86 1.54 1.35 1.20 1.10 1.01 0.95 0.99 0.98 1.07 1.13 1.12 1.10 1.03 1.12 1.35 1.46 1.66 1.91 2.07
0.04 0.08 0.16 0.18 0.12 0.10 0.19 0.61 0.78 0.59 0.74 1.04 1.28 1.54 1.96 2.33 2.67 3.31 3.97 4.76 5.36 5.87 5.66 5.00 4.79 4.53 3.85 3.06 2.40 1.92 1.62 1.45 1.27 1.16 1.05 0.97 0.85 0.80 0.87 0.96 1.02 0.82 0.80 0.84 0.82 1.11 1.31 1.54 1.68
0.02 0.05 0.10 0.22 0.17 0.18 0.26 0.47 0.74 0.78 0.95 1.15 1.30 1.45 1.73 1.93 2.26 2.77 3.29 3.74 4.32 4.82 4.72 4.64 4.72 4.22 3.60 2.95 2.40 2.03 1.74 1.45 1.24 1.14 1.12 1.04 0.94 0.85 0.92 0.83 0.79 0.68 0.79 0.91 1.00 1.23 1.21 1.20 1.29
0.02 0.04 0.08 0.15 0.16 0.23 0.36 0.50 0.71 0.87 1.10 1.26 1.29 1.25 1.33 1.55 1.85 2.15 2.53 2.88 3.09 3.25 3.34 3.63 3.84 3.54 3.04 2.60 2.07 1.81 1.67 1.44 1.26 1.13 1.01 1.01 0.93 0.97 0.99 0.83 0.97 0.84 0.84 0.88 0.90 1.03 1.06 0.98 0.94
0.03 0.06 0.11 0.14 0.14 0.19 0.35 0.63 0.81 0.89 0.91 0.99 1.10 1.06 1.08 1.29 1.38 1.48 1.70 2.03 2.12 2.33 2.64 3.01 3.24 3.08 2.54 2.27 2.02 1.84 1.71 1.53 1.45 1.33 1.15 0.99 0.92 0.91 0.81 0.95 0.85 0.86 0.95 0.95 0.96 1.04 1.07 0.95 0.89
0.04 0.05 0.06 0.10 0.11 0.19 0.35 0.87 0.99 0.87 0.79 0.69 0.80 0.86 0.83 0.92 1.02 1.01 1.10 1.27 1.57 2.05 2.19 2.25 2.50 2.69 2.42 2.27 2.18 2.05 1.90 1.65 1.60 1.51 1.30 0.99 0.86 0.85 0.86 0.84 0.83 0.99 0.82 0.99 1.12 1.08 1.08 1.06 0.95
0.04 0.03 0.02 0.02 0.07 0.30 0.43 0.88 0.99 0.87 0.87 0.68 0.63 0.63 0.54 0.53 0.69 0.83 0.85 0.90 1.10 1.43 1.71 1.95 2.19 2.35 2.28 2.15 1.94 1.77 1.56 1.41 1.36 1.35 1.34 1.19 1.04 0.90 0.89 0.84 0.90 0.99 0.86 1.12 0.89 0.92 1.07 1.10 0.95
0.01 0.01 0.01 0.03 0.10 0.27 0.40 0.73 0.96 0.79 0.92 0.68 0.42 0.31 0.26 0.27 0.38 0.55 0.67 0.75 0.79 0.98 1.37 1.79 2.11 2.33 2.21 1.91 1.73 1.71 1.61 1.53 1.45 1.36 1.44 1.30 1.20 1.04 0.90 0.91 0.96 0.93 0.87 0.96 0.99 1.18 1.07 1.03 0.98
0.01 0.02 0.08 0.17 0.29 0.61 0.61 0.59 0.90 0.68 0.49 0.34 0.23 0.17 0.19 0.20 0.26 0.35 0.42 0.52 0.66 0.79 1.02 1.30 1.62 1.88 1.91 1.74 1.64 1.66 1.67 1.64 1.50 1.30 1.25 1.14 1.10 1.08 1.03 1.06 1.05 0.96 0.89 0.92 0.95 1.06 1.07 1.13 1.17
0.02 0.03 0.16 0.37 0.63 0.83 0.49 0.62 0.97 0.56 0.37 0.22 0.17 0.16 0.17 0.16 0.21 0.31 0.37 0.35 0.48 0.57 0.66 0.82 1.12 1.34 1.49 1.55 1.55 1.53 1.64 1.65 1.48 1.31 1.23 1.17 1.01 0.96 0.99 1.03 1.11 1.03 1.00 0.98 1.02 1.01 0.99 1.07 1.13
0.02 0.02 0.06 0.13 0.25 0.41 0.48 1.08 0.92 0.39 0.24 0.20 0.16 0.17 0.16 0.15 0.16 0.25 0.34 0.34 0.35 0.39 0.51 0.64 0.86 1.04 1.16 1.24 1.35 1.39 1.39 1.31 1.32 1.38 1.25 1.17 1.10 1.03 0.99 1.02 1.00 0.99 1.00 0.98 1.19 1.01 0.92 0.98 0.96
0.02 0.02 0.03 0.04 0.06 0.25 0.58 0.77 0.48 0.21 0.19 0.21 0.17 0.15 0.15 0.19 0.23 0.24 0.30 0.33 0.26 0.30 0.38 0.45 0.63 0.77 0.87 1.00 1.16 1.17 1.19 1.12 1.14 1.17 1.14 1.07 1.14 1.14 1.05 0.97 0.95 0.99 1.03 1.07 1.17 1.08 1.05 1.09 0.97
0.03 0.02 0.02 0.02 0.05 0.18 0.43 0.68 0.68 0.38 0.29 0.25 0.21 0.18 0.15 0.21 0.30 0.30 0.27 0.32 0.28 0.27 0.33 0.38 0.48 0.61 0.72 0.84 0.92 0.92 1.08 1.09 1.18 1.16 1.08 1.01 0.96 0.96 1.00 0.97 0.91 0.97 1.05 1.13 1.18 1.17 1.24 1.32 1.20
0.04 0.03 0.03 0.03 0.04 0.09 0.29 0.44 0.46 0.35 0.31 0.24 0.20 0.20 0.21 0.20 0.31 0.33 0.30 0.29 0.25 0.24 0.26 0.29 0.41 0.53 0.62 0.74 0.80 0.88 0.93 0.98 1.04 1.09 1.09 1.06 1.01 0.99 0.99 0.98 0.96 0.97 1.02 1.11 1.16 1.12 1.25 1.39 1.43
0.05 0.06 0.06 0.05 0.05 0.06 0.12 0.20 0.22 0.24 0.29 0.26 0.25 0.28 0.26 0.18 0.20 0.26 0.26 0.22 0.19 0.22 0.23 0.24 0.29 0.37 0.46 0.64 0.78 0.83 0.92 0.97 0.97 0.99 1.16 1.18 1.15 1.13 1.13 1.13 1.13 1.07 1.03 1.09 1.07 1.01 1.09 1.27 1.46

GEFSSGP_prec_meanprecacc_174.txt.gz
Total_Precipitation_Accumulation
0.04 0.11 0.22 0.47 1.14 1.23 0.90 0.58 0.47 0.37 0.37 0.32 0.34 0.33 0.40 0.57 0.85 1.23 0.62 0.26 0.14 0.14 0.17 0.31 0.47 0.44 0.42 0.39 0.40 0.41 0.38 0.37 0.34 0.35 0.39 0.41 0.42 0.37 0.35 0.39 0.42 0.49 0.50 0.46 0.52 0.57 0.55 0.59 0.66
0.09 0.14 0.26 0.59 1.05 0.92 0.68 0.52 0.43 0.30 0.32 0.36 0.49 0.50 0.40 0.48 0.48 0.44 0.39 0.30 0.13 0.12 0.13 0.17 0.32 0.37 0.36 0.34 0.35 0.36 0.33 0.29 0.28 0.29 0.33 0.37 0.42 0.40 0.37 0.39 0.43 0.49 0.47 0.48 0.56 0.54 0.58 0.56 0.59
0.10 0.14 0.27 0.65 0.72 0.50 0.41 0.30 0.27 0.30 0.39 0.48 0.54 0.58 0.58 0.56 0.44 0.42 0.37 0.24 0.19 0.16 0.14 0.19 0.25 0.26 0.29 0.31 0.32 0.34 0.33 0.30 0.26 0.26 0.31 0.35 0.40 0.40 0.39 0.44 0.46 0.50 0.52 0.51 0.52 0.54 0.60 0.60 0.57
0.08 0.16 0.33 0.46 0.37 0.19 0.16 0.18 0.24 0.36 0.55 0.77 0.79 0.76 0.69 0.49 0.37 0.33 0.35 0.28 0.23 0.17 0.14 0.19 0.25 0.22 0.23 0.25 0.28 0.32 0.32 0.30 0.29 0.30 0.33 0.34 0.38 0.42 0.41 0.41 0.45 0.52 0.56 0.58 0.59 0.60 0.61 0.60 0.58
0.08 0.21 0.41 0.39 0.21 0.15 0.15 0.18 0.29 0.42 0.60 0.79 0.84 0.90 0.91 0.63 0.40 0.36 0.35 0.38 0.32 0.22 0.15 0.18 0.28 0.25 0.23 0.25 0.30 0.32 0.29 0.27 0.27 0.30 0.34 0.37 0.40 0.42 0.42 0.44 0.48 0.52 0.57 0.56 0.60 0.59 0.58 0.62 0.65
0.07 0.21 0.32 0.28 0.15 0.13 0.17 0.21 0.30 0.43 0.60 0.78 1.05 1.14 1.09 0.83 0.68 0.57 0.45 0.58 0.46 0.31 0.21 0.23 0.33 0.34 0.31 0.31 0.34 0.34 0.29 0.28 0.28 0.30 0.35 0.39 0.41 0.42 0.48 0.52 0.55 0.53 0.57 0.57 0.54 0.55 0.53 0.55 0.68
0.04 0.11 0.19 0.18 0.13 0.13 0.17 0.23 0.31 0.47 0.62 0.87 1.15 1.29 1.17 1.00 0.83 0.72 0.67 0.74 0.76 0.59 0.47 0.38 0.37 0.37 0.36 0.41 0.42 0.39 0.34 0.33 0.33 0.37 0.36 0.38 0.39 0.43 0.48 0.60 0.63 0.57 0.59 0.59 0.56 0.55 0.60 0.62 0.70
0.03 0.06 0.12 0.11 0.09 0.11 0.16 0.21 0.34 0.56 0.74 0.95 1.14 1.28 1.38 1.06 0.86 0.94 1.12 1.28 1.36 1.20 0.98 0.72 0.51 0.52 0.45 0.43 0.46 0.45 0.39 0.37 0.37 0.39 0.39 0.45 0.54 0.58 0.66 0.68 0.65 0.65 0.71 0.73 0.71 0.69 0.71 0.80 0.87
0.03 0.05 0.08 0.05 0.05 0.13 0.16 0.20 0.29 0.41 0.61 0.85 1.03 1.09 1.01 0.96 1.11 1.36 1.71 1.73 1.56 1.55 1.36 1.21 0.97 0.72 0.71 0.63 0.53 0.63 0.59 0.57 0.63 0.71 0.69 0.83 1.10 1.05 1.13 0.95 0.87 0.94 1.06 1.13 1.11 1.12 1.12 1.11 1.05
0.02 0.03 0.03 0.02 0.02 0.06 0.12 0.18 0.28 0.44 0.85 1.42 1.42 1.08 0.88 1.05 1.31 1.53 1.83 2.03 1.62 1.57 1.40 1.39 1.34 1.04 0.92 0.85 1.00 1.26 1.14 1.14 1.20 1.41 1.27 1.50 1.64 1.49 1.04 1.09 1.20 1.34 1.62 1.75 1.79 1.84 1.74 1.56 1.40
0.01 0.01 0.01 0.01 0.01 0.02 0.05 0.13 0.23 0.47 0.95 1.63 1.80 1.35 1.17 1.27 1.63 1.65 1.90 2.10 1.99 1.80 1.68 1.40 1.51 1.35 1.28 1.35 1.40 1.53 1.62 1.61 1.60 1.69 1.70 1.90 1.76 1.48 1.32 1.54 1.84 2.01 2.16 2.35 2.45 2.43 2.11 2.10 2.23
0.00 0.00 0.00 0.01 0.01 0.02 0.09 0.17 0.28 0.36 0.79 1.14 1.11 1.01 1.17 1.39 1.72 1.93 2.00 2.22 2.25 2.11 1.99 1.86 1.84 1.81 1.76 1.73 1.64 1.52 1.36 1.39 1.53 1.67 1.71 1.90 1.97 1.97 1.95 2.04 2.14 2.29 2.57 2.96 2.94 2.95 2.80 2.86 2.71
0.00 0.00 0.01 0.02 0.03 0.04 0.11 0.15 0.26 0.42 0.54 0.66 0.63 0.83 1.26 1.54 1.92 2.25 2.62 2.83 2.88 2.80 2.64 2.63 2.69 2.47 2.20 2.04 1.71 1.40 1.28 1.16 1.26 1.38 1.49 1.55 1.81 2.03 2.06 1.90 1.93 1.92 2.13 2.55 3.01 3.01 3.23 3.27 2.98
0.00 0.01 0.02 0.03 0.04 0.05 0.10 0.14 0.29 0.50 0.51 0.62 0.78 1.02 1.41 1.86 2.24 2.48 3.24 3.63 3.86 3.79 3.61 3.40 3.45 2.97 2.56 2.25 1.84 1.57 1.33 1.29 1.23 1.16 1.22 1.41 1.60 1.83 1.79 1.75 1.89 1.94 1.92 2.08 2.48 2.72 3.04 3.07 2.77
0.02 0.04 0.06 0.07 0.05 0.06 0.11 0.28 0.44 0.56 0.75 0.79 0.97 1.19 1.52 2.12 2.59 3.04 3.58 4.31 4.75 4.91 4.51 3.92 3.63 3.28 2.95 2.62 2.11 1.71 1.48 1.26 1.23 1.17 1.16 1.20 1.33 1.51 1.51 1.60 1.57 1.62 1.62 1.67 1.83 2.08 2.36 2.38 2.29
0.04 0.11 0.20 0.12 0.07 0.08 0.14 0.52 0.68 0.59 0.88 1.21 1.17 1.44 1.84 2.37 2.84 3.51 4.19 5.02 5.55 5.71 5.11 4.38 3.68 3.67 3.46 3.09 2.42 1.90 1.58 1.42 1.27 1.19 1.09 1.00 1.03 1.01 1.08 1.15 1.14 1.11 1.05 1.15 1.41 1.52 1.73 1.97 2.11
0.04 0.09 0.17 0.19 0.12 0.11 0.19 0.61 0.78 0.59 0.75 1.04 1.28 1.54 1.96 2.33 2.67 3.32 3.97 4.77 5.36 5.88 5.67 5.02 4.81 4.55 3.87 3.08 2.44 1.97 1.66 1.50 1.32 1.22 1.12 1.02 0.90 0.85 0.90 0.97 1.04 0.84 0.84 0.88 0.88 1.20 1.39 1.61 1.73
0.03 0.05 0.10 0.22 0.17 0.18 0.26 0.47 0.74 0.78 0.95 1.15 1.30 1.45 1.73 1.93 2.26 2.78 3.30 3.74 4.32 4.82 4.72 4.65 4.73 4.23 3.61 2.96 2.43 2.08 1.79 1.49 1.28 1.18 1.16 1.07 0.98 0.90 0.96 0.86 0.82 0.72 0.84 0.98 1.09 1.33 1.29 1.26 1.35
0.02 0.04 0.09 0.15 0.16 0.23 0.36 0.50 0.72 0.88 1.10 1.26 1.29 1.25 1.33 1.55 1.85 2.15 2.53 2.88 3.09 3.25 3.35 3.65 3.85 3.55 3.05 2.61 2.09 1.84 1.71 1.50 1.30 1.16 1.04 1.05 0.96 1.02 1.04 0.87 1.03 0.89 0.90 0.93 0.97 1.09 1.13 1.04 1.01
0.03 0.06 0.11 0.15 0.14 0.20 0.35 0.64 0.82 0.90 0.92 0.99 1.10 1.06 1.08 1.29 1.38 1.48 1.70 2.03 2.12 2.33 2.65 3.01 3.25 3.09 2.55 2.29 2.03 1.85 1.73 1.57 1.48 1.36 1.20 1.03 0.98 0.99 0.88 1.03 0.90 0.91 1.00 1.03 1.03 1.12 1.15 1.02 0.98
0.04 0.05 0.06 0.10 0.11 0.20 0.36 0.88 1.00 0.88 0.79 0.69 0.81 0.86 0.83 0.92 1.02 1.01 1.10 1.27 1.57 2.05 2.19 2.25 2.50 2.69 2.43 2.28 2.19 2.06 1.91 1.67 1.63 1.55 1.35 1.04 0.93 0.94 0.95 0.93 0.89 1.04 0.86 1.04 1.17 1.16 1.20 1.16 1.04
0.04 0.03 0.02 0.03 0.07 0.31 0.44 0.89 1.00 0.88 0.88 0.69 0.65 0.64 0.55 0.53 0.69 0.83 0.85 0.90 1.10 1.43 1.71 1.96 2.20 2.36 2.28 2.16 1.95 1.78 1.57 1.43 1.38 1.38 1.37 1.23 1.10 0.98 0.96 0.89 0.95 1.03 0.89 1.16 0.93 0.98 1.16 1.21 1.06
0.01 0.01 0.01 0.03 0.10 0.28 0.41 0.74 0.97 0.80 0.94 0.70 0.43 0.32 0.27 0.28 0.38 0.55 0.67 0.75 0.79 0.98 1.37 1.79 2.11 2.34 2.23 1.93 1.75 1.72 1.61 1.54 1.46 1.37 1.46 1.32 1.24 1.08 0.95 0.96 1.01 0.98 0.91 1.01 1.04 1.24 1.15 1.11 1.06
0.01 0.02 0.08 0.17 0.30 0.62 0.62 0.62 0.90 0.69 0.51 0.36 0.26 0.19 0.20 0.22 0.26 0.35 0.42 0.52 0.66 0.79 1.02 1.30 1.62 1.90 1.93 1.76 1.66 1.68 1.67 1.65 1.52 1.31 1.26 1.15 1.12 1.11 1.06 1.10 1.10 1.00 0.92 0.96 1.00 1.11 1.12 1.18 1.24
0.02 0.03 0.16 0.37 0.64 0.84 0.49 0.63 0.98 0.56 0.37 0.22 0.18 0.17 0.17 0.16 0.21 0.31 0.37 0.35 0.48 0.57 0.66 0.82 1.12 1.35 1.50 1.57 1.56 1.55 1.65 1.66 1.49 1.33 1.25 1.19 1.04 0.99 1.02 1.06 1.15 1.08 1.04 1.01 1.06 1.04 1.02 1.11 1.18
0.02 0.02 0.06 0.13 0.25 0.41 0.48 1.09 0.93 0.39 0.24 0.20 0.16 0.17 0.16 0.15 0.16 0.25 0.35 0.34 0.35 0.39 0.51 0.65 0.86 1.04 1.17 1.26 1.36 1.41 1.41 1.33 1.33 1.41 1.29 1.20 1.13 1.06 1.02 1.06 1.04 1.04 1.04 1.02 1.24 1.06 0.96 1.02 1.01
0.02 0.02 0.03 0.04 0.06 0.25 0.59 0.77 0.49 0.21 0.19 0.21 0.17 0.15 0.15 0.19 0.25 0.27 0.31 0.34 0.27 0.30 0.38 0.46 0.63 0.78 0.88 1.01 1.17 1.19 1.21 1.14 1.15 1.20 1.18 1.12 1.18 1.17 1.08 1.00 0.98 1.02 1.08 1.13 1.22 1.13 1.12 1.16 1.03
0.03 0.02 0.02 0.02 0.05 0.18 0.43 0.68 0.69 0.39 0.29 0.26 0.22 0.18 0.16 0.24 0.37 0.36 0.29 0.34 0.29 0.28 0.34 0.39 0.49 0.62 0.72 0.84 0.92 0.93 1.09 1.10 1.19 1.18 1.10 1.03 1.00 1.00 1.03 1.00 0.94 1.01 1.10 1.19 1.26 1.26 1.35 1.42 1.28
0.04 0.03 0.03 0.03 0.04 0.09 0.29 0.44 0.46 0.36 0.32 0.25 0.20 0.22 0.28 0.28 0.39 0.40 0.34 0.31 0.27 0.26 0.28 0.30 0.42 0.53 0.62 0.74 0.81 0.88 0.94 0.99 1.05 1.10 1.10 1.07 1.02 1.00 1.00 1.01 1.00 1.02 1.08 1.18 1.23 1.20 1.37 1.51 1.54
0.05 0.06 0.06 0.05 0.05 0.06 0.12 0.20 0.22 0.25 0.31 0.27 0.26 0.29 0.29 0.24 0.25 0.31 0.33 0.31 0.22 0.24 0.24 0.25 0.30 0.37 0.46 0.65 0.79 0.83 0.92 0.97 0.97 1.00 1.17 1.19 1.16 1.14 1.15 1.15 1.17 1.13 1.10 1.16 1.15 1.09 1.16 1.35 1.55